Wetterdaten: Donnerstag, 15.04.2010
Datum Zeit Temp. Innen Temp. Aussen UV X Diff Temp. Feuchte Inne Feuchte Auss Sonnenschein Luftdruck Regen ab 0,1 Wind Sonnenschein Windben
15.04.2010 00:00 16,6 C 8,8 C 0,0 UV-I 0,0 C 46 % 65 % 0 % 1017,9 hPa 0,0 l/m 2,0 km/h (1 Bft) 0 min 4,4 km/h (1 Bft)
15.04.2010 00:02 16,6 C 8,7 C 0,0 UV-I 0,0 C 46 % 65 % 0 % 1017,9 hPa 0,0 l/m 1,2 km/h (1 Bft) 0 min 4,8 km/h (1 Bft)
15.04.2010 00:04 16,6 C 8,7 C 0,0 UV-I 0,0 C 46 % 65 % 0 % 1017,9 hPa 0,0 l/m 0,8 km/h (0 Bft) 0 min 0,0 km/h (0 Bft)
15.04.2010 00:06 16,6 C 8,7 C 0,0 UV-I 0,0 C 46 % 65 % 0 % 1017,9 hPa 0,0 l/m 0,8 km/h (0 Bft) 0 min 0,0 km/h (0 Bft)
15.04.2010 00:08 16,6 C 8,7 C 0,0 UV-I 0,0 C 46 % 65 % 0 % 1017,9 hPa 0,0 l/m 0,8 km/h (0 Bft) 0 min 0,0 km/h (0 Bft)
15.04.2010 00:12 16,6 C 8,7 C 0,0 UV-I 0,0 C 46 % 66 % 0 % 1018,0 hPa 0,0 l/m 0,8 km/h (0 Bft) 0 min 0,0 km/h (0 Bft)
15.04.2010 00:14 16,6 C 8,7 C 0,0 UV-I 0,0 C 46 % 66 % 0 % 1018,0 hPa 0,0 l/m 1,6 km/h (1 Bft) 0 min 6,0 km/h (2 Bft)
15.04.2010 00:16 16,6 C 8,8 C 0,0 UV-I 0,0 C 46 % 66 % 0 % 1018,0 hPa 0,0 l/m 1,2 km/h (1 Bft) 0 min 0,0 km/h (0 Bft)
15.04.2010 00:18 16,6 C 8,8 C 0,0 UV-I 0,0 C 46 % 66 % 0 % 1018,0 hPa 0,0 l/m 1,2 km/h (1 Bft) 0 min 0,0 km/h (0 Bft)
15.04.2010 00:20 16,6 C 8,9 C 0,0 UV-I 0,0 C 46 % 66 % 0 % 1018,0 hPa 0,0 l/m 1,2 km/h (1 Bft) 0 min 8,4 km/h (2 Bft)
15.04.2010 00:24 16,6 C 8,8 C 0,0 UV-I 0,0 C 46 % 66 % 0 % 1018,0 hPa 0,0 l/m 0,8 km/h (0 Bft) 0 min 0,0 km/h (0 Bft)
15.04.2010 00:26 16,6 C 8,8 C 0,0 UV-I 0,0 C 46 % 66 % 0 % 1018,0 hPa 0,0 l/m 0,4 km/h (0 Bft) 0 min 0,0 km/h (0 Bft)
15.04.2010 00:28 16,6 C 8,9 C 0,0 UV-I 0,0 C 46 % 66 % 0 % 1018,0 hPa 0,0 l/m 0,4 km/h (0 Bft) 0 min 0,0 km/h (0 Bft)
15.04.2010 00:30 16,5 C 8,9 C 0,0 UV-I 0,0 C 46 % 66 % 0 % 1018,0 hPa 0,0 l/m 0,8 km/h (0 Bft) 0 min 0,0 km/h (0 Bft)
15.04.2010 00:36 16,5 C 9,1 C 0,0 UV-I 0,0 C 46 % 66 % 0 % 1017,8 hPa 0,0 l/m 1,2 km/h (1 Bft) 0 min 0,0 km/h (0 Bft)
15.04.2010 00:38 16,5 C 9,1 C 0,0 UV-I 0,0 C 46 % 66 % 0 % 1017,8 hPa 0,0 l/m 1,2 km/h (1 Bft) 0 min 0,0 km/h (0 Bft)
15.04.2010 00:40 16,5 C 9,1 C 0,0 UV-I 0,0 C 46 % 66 % 0 % 1017,8 hPa 0,0 l/m 1,2 km/h (1 Bft) 0 min 4,4 km/h (1 Bft)
15.04.2010 00:42 16,5 C 9,1 C 0,0 UV-I 0,0 C 46 % 66 % 0 % 1017,8 hPa 0,0 l/m 0,8 km/h (0 Bft) 0 min 0,0 km/h (0 Bft)
15.04.2010 00:44 16,5 C 9,1 C 0,0 UV-I 0,0 C 46 % 67 % 0 % 1017,8 hPa 0,0 l/m 0,8 km/h (0 Bft) 0 min 0,0 km/h (0 Bft)
15.04.2010 00:46 16,5 C 9,1 C 0,0 UV-I 0,0 C 46 % 67 % 0 % 1017,8 hPa 0,0 l/m 0,4 km/h (0 Bft) 0 min 0,0 km/h (0 Bft)
15.04.2010 00:48 16,5 C 9,0 C 0,0 UV-I 0,0 C 46 % 67 % 0 % 1017,8 hPa 0,0 l/m 0,4 km/h (0 Bft) 0 min 0,0 km/h (0 Bft)
15.04.2010 00:50 16,5 C 9,0 C 0,0 UV-I 0,0 C 46 % 67 % 0 % 1017,8 hPa 0,0 l/m 0,8 km/h (0 Bft) 0 min 4,4 km/h (1 Bft)
15.04.2010 00:52 16,4 C 9,1 C 0,0 UV-I 0,0 C 46 % 67 % 0 % 1017,9 hPa 0,0 l/m 0,8 km/h (0 Bft) 0 min 4,4 km/h (1 Bft)
15.04.2010 00:54 16,4 C 9,1 C 0,0 UV-I 0,0 C 46 % 67 % 0 % 1017,9 hPa 0,0 l/m 1,6 km/h (1 Bft) 0 min 4,0 km/h (1 Bft)
15.04.2010 01:00 16,4 C 9,1 C 0,0 UV-I 0,0 C 46 % 67 % 0 % 1017,9 hPa 0,0 l/m 1,6 km/h (1 Bft) 0 min 5,2 km/h (1 Bft)
15.04.2010 01:02 16,4 C 9,1 C 0,0 UV-I 0,0 C 46 % 67 % 0 % 1017,9 hPa 0,0 l/m 1,6 km/h (1 Bft) 0 min 0,0 km/h (0 Bft)
15.04.2010 01:04 16,4 C 9,1 C 0,0 UV-I 0,0 C 46 % 67 % 0 % 1017,9 hPa 0,0 l/m 0,8 km/h (0 Bft) 0 min 0,0 km/h (0 Bft)
15.04.2010 01:06 16,4 C 9,1 C 0,0 UV-I 0,0 C 46 % 67 % 0 % 1017,9 hPa 0,0 l/m 0,8 km/h (0 Bft) 0 min 0,0 km/h (0 Bft)
15.04.2010 01:10 16,4 C 9,1 C 0,0 UV-I 0,0 C 46 % 67 % 0 % 1017,9 hPa 0,0 l/m 0,0 km/h (0 Bft) 0 min 0,0 km/h (0 Bft)
15.04.2010 01:12 16,4 C 9,1 C 0,0 UV-I 0,0 C 46 % 67 % 0 % 1017,9 hPa 0,0 l/m 0,0 km/h (0 Bft) 0 min 0,0 km/h (0 Bft)
15.04.2010 01:14 16,4 C 9,0 C 0,0 UV-I 0,0 C 46 % 67 % 0 % 1017,9 hPa 0,0 l/m 0,0 km/h (0 Bft) 0 min 0,0 km/h (0 Bft)
15.04.2010 01:16 16,4 C 9,0 C 0,0 UV-I 0,0 C 46 % 67 % 0 % 1017,9 hPa 0,0 l/m 0,0 km/h (0 Bft) 0 min 0,0 km/h (0 Bft)
15.04.2010 01:18 16,4 C 9,1 C 0,0 UV-I 0,0 C 46 % 67 % 0 % 1017,9 hPa 0,0 l/m 0,0 km/h (0 Bft) 0 min 0,0 km/h (0 Bft)
15.04.2010 01:20 16,4 C 9,0 C 0,0 UV-I 0,0 C 46 % 67 % 0 % 1017,9 hPa 0,0 l/m 0,0 km/h (0 Bft) 0 min 0,0 km/h (0 Bft)
15.04.2010 01:22 16,4 C 9,0 C 0,0 UV-I 0,0 C 46 % 67 % 0 % 1017,9 hPa 0,0 l/m 0,0 km/h (0 Bft) 0 min 6,8 km/h (2 Bft)
15.04.2010 01:24 16,4 C 9,0 C 0,0 UV-I 0,0 C 46 % 67 % 0 % 1017,9 hPa 0,0 l/m 0,4 km/h (0 Bft) 0 min 4,0 km/h (1 Bft)
15.04.2010 01:28 16,4 C 9,0 C 0,0 UV-I 0,0 C 46 % 68 % 0 % 1017,9 hPa 0,0 l/m 0,4 km/h (0 Bft) 0 min 0,0 km/h (0 Bft)
15.04.2010 01:30 16,4 C 8,9 C 0,0 UV-I 0,0 C 47 % 67 % 0 % 1017,9 hPa 0,0 l/m 0,4 km/h (0 Bft) 0 min 4,0 km/h (1 Bft)
15.04.2010 01:32 16,4 C 9,0 C 0,0 UV-I 0,0 C 46 % 68 % 0 % 1018,5 hPa 0,0 l/m 0,4 km/h (0 Bft) 0 min 0,0 km/h (0 Bft)
15.04.2010 01:34 16,4 C 9,0 C 0,0 UV-I 0,0 C 47 % 68 % 0 % 1018,5 hPa 0,0 l/m 0,4 km/h (0 Bft) 0 min 0,0 km/h (0 Bft)
15.04.2010 01:36 16,4 C 8,9 C 0,0 UV-I 0,0 C 47 % 67 % 0 % 1018,5 hPa 0,0 l/m 0,4 km/h (0 Bft) 0 min 0,0 km/h (0 Bft)
15.04.2010 01:38 16,4 C 8,9 C 0,0 UV-I 0,0 C 47 % 67 % 0 % 1018,5 hPa 0,0 l/m 0,0 km/h (0 Bft) 0 min 0,0 km/h (0 Bft)
15.04.2010 01:40 16,4 C 8,8 C 0,0 UV-I 0,0 C 47 % 68 % 0 % 1018,5 hPa 0,0 l/m 0,0 km/h (0 Bft) 0 min 0,0 km/h (0 Bft)
15.04.2010 01:42 16,4 C 8,9 C 0,0 UV-I 0,0 C 47 % 68 % 0 % 1018,5 hPa 0,0 l/m 0,0 km/h (0 Bft) 0 min 0,0 km/h (0 Bft)
15.04.2010 01:44 16,4 C 8,8 C 0,0 UV-I 0,0 C 47 % 68 % 0 % 1018,5 hPa 0,0 l/m 0,0 km/h (0 Bft) 0 min 0,0 km/h (0 Bft)
15.04.2010 01:46 16,4 C 8,8 C 0,0 UV-I 0,0 C 47 % 68 % 0 % 1018,5 hPa 0,0 l/m 0,0 km/h (0 Bft) 0 min 0,0 km/h (0 Bft)
15.04.2010 01:50 16,4 C 8,7 C 0,0 UV-I 0,0 C 47 % 69 % 0 % 1018,5 hPa 0,0 l/m 0,0 km/h (0 Bft) 0 min 0,0 km/h (0 Bft)
15.04.2010 01:52 16,4 C 8,6 C 0,0 UV-I 0,0 C 47 % 69 % 0 % 1018,3 hPa 0,0 l/m 0,0 km/h (0 Bft) 0 min 0,0 km/h (0 Bft)
15.04.2010 01:56 16,4 C 8,5 C 0,0 UV-I 0,0 C 47 % 69 % 0 % 1018,3 hPa 0,0 l/m 0,0 km/h (0 Bft) 0 min 0,0 km/h (0 Bft)
15.04.2010 01:58 16,4 C 8,5 C 0,0 UV-I 0,0 C 47 % 69 % 0 % 1018,3 hPa 0,0 l/m 0,4 km/h (0 Bft) 0 min 5,2 km/h (1 Bft)
15.04.2010 02:00 16,4 C 8,5 C 0,0 UV-I 0,0 C 47 % 69 % 0 % 1018,3 hPa 0,0 l/m 1,2 km/h (1 Bft) 0 min 5,6 km/h (1 Bft)
15.04.2010 02:02 16,4 C 8,5 C 0,0 UV-I 0,0 C 47 % 69 % 0 % 1018,3 hPa 0,0 l/m 1,6 km/h (1 Bft) 0 min 5,2 km/h (1 Bft)
15.04.2010 02:04 16,4 C 8,5 C 0,0 UV-I 0,0 C 47 % 69 % 0 % 1018,3 hPa 0,0 l/m 2,0 km/h (1 Bft) 0 min 0,0 km/h (0 Bft)
15.04.2010 02:06 16,4 C 8,5 C 0,0 UV-I 0,0 C 47 % 69 % 0 % 1018,3 hPa 0,0 l/m 2,0 km/h (1 Bft) 0 min 0,0 km/h (0 Bft)
15.04.2010 02:08 16,4 C 8,5 C 0,0 UV-I 0,0 C 47 % 69 % 0 % 1018,3 hPa 0,0 l/m 1,6 km/h (1 Bft) 0 min 0,0 km/h (0 Bft)
15.04.2010 02:10 16,4 C 8,4 C 0,0 UV-I 0,0 C 47 % 69 % 0 % 1018,3 hPa 0,0 l/m 1,2 km/h (1 Bft) 0 min 0,0 km/h (0 Bft)
15.04.2010 02:12 16,4 C 8,5 C 0,0 UV-I 0,0 C 47 % 69 % 0 % 1018,2 hPa 0,0 l/m 0,4 km/h (0 Bft) 0 min 0,0 km/h (0 Bft)
15.04.2010 02:16 16,4 C 8,3 C 0,0 UV-I 0,0 C 47 % 70 % 0 % 1018,2 hPa 0,0 l/m 0,0 km/h (0 Bft) 0 min 0,0 km/h (0 Bft)
15.04.2010 02:18 16,4 C 8,2 C 0,0 UV-I 0,0 C 47 % 70 % 0 % 1018,2 hPa 0,0 l/m 0,0 km/h (0 Bft) 0 min 0,0 km/h (0 Bft)
15.04.2010 02:20 16,4 C 8,3 C 0,0 UV-I 0,0 C 47 % 70 % 0 % 1018,2 hPa 0,0 l/m 0,0 km/h (0 Bft) 0 min 0,0 km/h (0 Bft)
15.04.2010 02:22 16,4 C 8,2 C 0,0 UV-I 0,0 C 47 % 70 % 0 % 1018,2 hPa 0,0 l/m 0,0 km/h (0 Bft) 0 min 0,0 km/h (0 Bft)
15.04.2010 02:24 16,4 C 8,1 C 0,0 UV-I 0,0 C 47 % 70 % 0 % 1018,2 hPa 0,0 l/m 0,0 km/h (0 Bft) 0 min 0,0 km/h (0 Bft)
15.04.2010 02:26 16,4 C 8,0 C 0,0 UV-I 0,0 C 47 % 71 % 0 % 1018,2 hPa 0,0 l/m 0,0 km/h (0 Bft) 0 min 0,0 km/h (0 Bft)
15.04.2010 02:28 16,4 C 8,0 C 0,0 UV-I 0,0 C 47 % 71 % 0 % 1018,2 hPa 0,0 l/m 0,0 km/h (0 Bft) 0 min 0,0 km/h (0 Bft)
15.04.2010 02:32 16,4 C 7,9 C 0,0 UV-I 0,0 C 47 % 72 % 0 % 1018,2 hPa 0,0 l/m 0,0 km/h (0 Bft) 0 min 0,0 km/h (0 Bft)
15.04.2010 02:34 16,4 C 7,9 C 0,0 UV-I 0,0 C 47 % 72 % 0 % 1018,2 hPa 0,0 l/m 0,0 km/h (0 Bft) 0 min 0,0 km/h (0 Bft)
15.04.2010 02:36 16,4 C 7,9 C 0,0 UV-I 0,0 C 47 % 72 % 0 % 1018,2 hPa 0,0 l/m 0,0 km/h (0 Bft) 0 min 0,0 km/h (0 Bft)
15.04.2010 02:38 16,4 C 7,7 C 0,0 UV-I 0,0 C 47 % 72 % 0 % 1018,2 hPa 0,0 l/m 0,0 km/h (0 Bft) 0 min 0,0 km/h (0 Bft)
15.04.2010 02:40 16,4 C 7,7 C 0,0 UV-I 0,0 C 47 % 72 % 0 % 1018,2 hPa 0,0 l/m 0,0 km/h (0 Bft) 0 min 0,0 km/h (0 Bft)
15.04.2010 02:42 16,4 C 7,6 C 0,0 UV-I 0,0 C 47 % 72 % 0 % 1018,2 hPa 0,0 l/m 0,0 km/h (0 Bft) 0 min 0,0 km/h (0 Bft)
15.04.2010 02:44 16,4 C 7,6 C 0,0 UV-I 0,0 C 47 % 73 % 0 % 1018,2 hPa 0,0 l/m 0,0 km/h (0 Bft) 0 min 0,0 km/h (0 Bft)
15.04.2010 02:46 16,4 C 7,6 C 0,0 UV-I 0,0 C 47 % 73 % 0 % 1018,2 hPa 0,0 l/m 0,0 km/h (0 Bft) 0 min 0,0 km/h (0 Bft)
15.04.2010 02:50 16,4 C 7,5 C 0,0 UV-I 0,0 C 47 % 73 % 0 % 1018,2 hPa 0,0 l/m 0,0 km/h (0 Bft) 0 min 0,0 km/h (0 Bft)
15.04.2010 02:52 16,4 C 7,5 C 0,0 UV-I 0,0 C 47 % 74 % 0 % 1018,4 hPa 0,0 l/m 0,0 km/h (0 Bft) 0 min 0,0 km/h (0 Bft)
15.04.2010 02:54 16,4 C 7,5 C 0,0 UV-I 0,0 C 47 % 74 % 0 % 1018,4 hPa 0,0 l/m 0,0 km/h (0 Bft) 0 min 0,0 km/h (0 Bft)
15.04.2010 02:56 16,4 C 7,3 C 0,0 UV-I 0,0 C 47 % 74 % 0 % 1018,4 hPa 0,0 l/m 0,0 km/h (0 Bft) 0 min 0,0 km/h (0 Bft)
15.04.2010 02:58 16,4 C 7,3 C 0,0 UV-I 0,0 C 47 % 74 % 0 % 1018,4 hPa 0,0 l/m 0,0 km/h (0 Bft) 0 min 0,0 km/h (0 Bft)
15.04.2010 03:00 16,4 C 7,2 C 0,0 UV-I 0,0 C 47 % 74 % 0 % 1018,4 hPa 0,0 l/m 0,0 km/h (0 Bft) 0 min 0,0 km/h (0 Bft)
15.04.2010 03:02 16,4 C 7,3 C 0,0 UV-I 0,0 C 47 % 74 % 0 % 1018,4 hPa 0,0 l/m 0,0 km/h (0 Bft) 0 min 0,0 km/h (0 Bft)
15.04.2010 03:04 16,4 C 7,2 C 0,0 UV-I 0,0 C 47 % 74 % 0 % 1018,4 hPa 0,0 l/m 0,0 km/h (0 Bft) 0 min 0,0 km/h (0 Bft)
15.04.2010 03:06 16,2 C 7,1 C 0,0 UV-I 0,0 C 47 % 74 % 0 % 1018,4 hPa 0,0 l/m 0,0 km/h (0 Bft) 0 min 0,0 km/h (0 Bft)
15.04.2010 03:08 16,2 C 7,1 C 0,0 UV-I 0,0 C 47 % 74 % 0 % 1018,4 hPa 0,0 l/m 0,0 km/h (0 Bft) 0 min 0,0 km/h (0 Bft)
15.04.2010 03:10 16,4 C 7,1 C 0,0 UV-I 0,0 C 47 % 74 % 0 % 1018,4 hPa 0,0 l/m 0,0 km/h (0 Bft) 0 min 0,0 km/h (0 Bft)
15.04.2010 03:12 16,2 C 7,1 C 0,0 UV-I 0,0 C 47 % 74 % 0 % 1018,2 hPa 0,0 l/m 0,0 km/h (0 Bft) 0 min 0,0 km/h (0 Bft)
15.04.2010 03:14 16,2 C 6,9 C 0,0 UV-I 0,0 C 47 % 75 % 0 % 1018,2 hPa 0,0 l/m 0,0 km/h (0 Bft) 0 min 0,0 km/h (0 Bft)
15.04.2010 03:16 16,2 C 6,9 C 0,0 UV-I 0,0 C 47 % 75 % 0 % 1018,2 hPa 0,0 l/m 0,0 km/h (0 Bft) 0 min 0,0 km/h (0 Bft)
15.04.2010 03:18 16,4 C 6,8 C 0,0 UV-I 0,0 C 47 % 75 % 0 % 1018,2 hPa 0,0 l/m 0,0 km/h (0 Bft) 0 min 4,8 km/h (1 Bft)
15.04.2010 03:20 16,2 C 6,8 C 0,0 UV-I 0,0 C 47 % 75 % 0 % 1018,2 hPa 0,0 l/m 0,8 km/h (0 Bft) 0 min 4,4 km/h (1 Bft)
15.04.2010 03:24 16,2 C 6,8 C 0,0 UV-I 0,0 C 47 % 75 % 0 % 1018,2 hPa 0,0 l/m 0,8 km/h (0 Bft) 0 min 0,0 km/h (0 Bft)
15.04.2010 03:26 16,2 C 6,8 C 0,0 UV-I 0,0 C 47 % 75 % 0 % 1018,2 hPa 0,0 l/m 0,8 km/h (0 Bft) 0 min 0,0 km/h (0 Bft)
15.04.2010 03:28 16,2 C 6,7 C 0,0 UV-I 0,0 C 47 % 75 % 0 % 1018,2 hPa 0,0 l/m 0,8 km/h (0 Bft) 0 min 0,0 km/h (0 Bft)
15.04.2010 03:30 16,2 C 6,7 C 0,0 UV-I 0,0 C 47 % 75 % 0 % 1018,2 hPa 0,0 l/m 0,4 km/h (0 Bft) 0 min 0,0 km/h (0 Bft)
15.04.2010 03:32 16,2 C 6,6 C 0,0 UV-I 0,0 C 47 % 75 % 0 % 1018,4 hPa 0,0 l/m 0,0 km/h (0 Bft) 0 min 0,0 km/h (0 Bft)
15.04.2010 03:34 16,2 C 6,6 C 0,0 UV-I 0,0 C 47 % 75 % 0 % 1018,4 hPa 0,0 l/m 0,0 km/h (0 Bft) 0 min 0,0 km/h (0 Bft)
15.04.2010 03:36 16,3 C 6,5 C 0,0 UV-I 0,0 C 47 % 75 % 0 % 1018,4 hPa 0,0 l/m 0,0 km/h (0 Bft) 0 min 0,0 km/h (0 Bft)
15.04.2010 03:38 16,3 C 6,5 C 0,0 UV-I 0,0 C 47 % 75 % 0 % 1018,4 hPa 0,0 l/m 0,0 km/h (0 Bft) 0 min 0,0 km/h (0 Bft)
15.04.2010 03:40 16,3 C 6,4 C 0,0 UV-I 0,0 C 47 % 75 % 0 % 1018,4 hPa 0,0 l/m 0,0 km/h (0 Bft) 0 min 0,0 km/h (0 Bft)
15.04.2010 03:42 16,3 C 6,4 C 0,0 UV-I 0,0 C 47 % 75 % 0 % 1018,4 hPa 0,0 l/m 0,0 km/h (0 Bft) 0 min 0,0 km/h (0 Bft)
15.04.2010 03:44 16,3 C 6,3 C 0,0 UV-I 0,0 C 47 % 75 % 0 % 1018,4 hPa 0,0 l/m 0,0 km/h (0 Bft) 0 min 0,0 km/h (0 Bft)
15.04.2010 03:46 16,3 C 6,3 C 0,0 UV-I 0,0 C 47 % 76 % 0 % 1018,4 hPa 0,0 l/m 0,0 km/h (0 Bft) 0 min 4,4 km/h (1 Bft)
15.04.2010 03:48 16,3 C 6,3 C 0,0 UV-I 0,0 C 47 % 76 % 0 % 1018,4 hPa 0,0 l/m 0,0 km/h (0 Bft) 0 min 0,0 km/h (0 Bft)
15.04.2010 03:50 16,3 C 6,3 C 0,0 UV-I 0,0 C 47 % 76 % 0 % 1018,4 hPa 0,0 l/m 0,0 km/h (0 Bft) 0 min 0,0 km/h (0 Bft)
15.04.2010 03:52 16,3 C 6,2 C 0,0 UV-I 0,0 C 47 % 76 % 0 % 1018,1 hPa 0,0 l/m 0,0 km/h (0 Bft) 0 min 0,0 km/h (0 Bft)
15.04.2010 03:56 16,2 C 6,3 C 0,0 UV-I 0,0 C 47 % 76 % 0 % 1018,1 hPa 0,0 l/m 0,0 km/h (0 Bft) 0 min 0,0 km/h (0 Bft)
15.04.2010 03:58 16,2 C 6,1 C 0,0 UV-I 0,0 C 47 % 76 % 0 % 1018,1 hPa 0,0 l/m 0,0 km/h (0 Bft) 0 min 0,0 km/h (0 Bft)
15.04.2010 04:00 16,2 C 6,1 C 0,0 UV-I 0,0 C 47 % 76 % 0 % 1018,1 hPa 0,0 l/m 0,0 km/h (0 Bft) 0 min 0,0 km/h (0 Bft)
15.04.2010 04:02 16,2 C 6,0 C 0,0 UV-I 0,0 C 47 % 76 % 0 % 1018,1 hPa 0,0 l/m 0,0 km/h (0 Bft) 0 min 0,0 km/h (0 Bft)
15.04.2010 04:04 16,2 C 6,0 C 0,0 UV-I 0,0 C 47 % 76 % 0 % 1018,1 hPa 0,0 l/m 0,0 km/h (0 Bft) 0 min 0,0 km/h (0 Bft)
15.04.2010 04:06 16,2 C 6,0 C 0,0 UV-I 0,0 C 47 % 76 % 0 % 1018,1 hPa 0,0 l/m 0,0 km/h (0 Bft) 0 min 0,0 km/h (0 Bft)
15.04.2010 04:08 16,2 C 5,9 C 0,0 UV-I 0,0 C 47 % 76 % 0 % 1018,1 hPa 0,0 l/m 0,0 km/h (0 Bft) 0 min 0,0 km/h (0 Bft)
15.04.2010 04:10 16,2 C 5,9 C 0,0 UV-I 0,0 C 47 % 77 % 0 % 1018,1 hPa 0,0 l/m 0,0 km/h (0 Bft) 0 min 0,0 km/h (0 Bft)
15.04.2010 04:13 16,2 C 5,9 C 0,0 UV-I 0,0 C 47 % 77 % 0 % 1018,3 hPa 0,0 l/m 0,0 km/h (0 Bft) 0 min 0,0 km/h (0 Bft)
15.04.2010 04:18 16,2 C 5,6 C 0,0 UV-I 0,0 C 47 % 78 % 0 % 1018,3 hPa 0,0 l/m 0,0 km/h (0 Bft) 0 min 0,0 km/h (0 Bft)
15.04.2010 04:19 16,2 C 5,6 C 0,0 UV-I 0,0 C 47 % 78 % 0 % 1018,3 hPa 0,0 l/m 0,0 km/h (0 Bft) 0 min 0,0 km/h (0 Bft)
15.04.2010 04:20 16,2 C 5,6 C 0,0 UV-I 0,0 C 47 % 78 % 0 % 1018,3 hPa 0,0 l/m 0,0 km/h (0 Bft) 0 min 0,0 km/h (0 Bft)
15.04.2010 04:22 16,2 C 5,7 C 0,0 UV-I 0,0 C 47 % 78 % 0 % 1018,3 hPa 0,0 l/m 0,0 km/h (0 Bft) 0 min 0,0 km/h (0 Bft)
15.04.2010 04:24 16,2 C 5,6 C 0,0 UV-I 0,0 C 47 % 78 % 0 % 1018,3 hPa 0,0 l/m 0,0 km/h (0 Bft) 0 min 0,0 km/h (0 Bft)
15.04.2010 04:26 16,2 C 5,5 C 0,0 UV-I 0,0 C 47 % 78 % 0 % 1018,3 hPa 0,0 l/m 0,0 km/h (0 Bft) 0 min 0,0 km/h (0 Bft)
15.04.2010 04:28 16,2 C 5,5 C 0,0 UV-I 0,0 C 47 % 78 % 0 % 1018,3 hPa 0,0 l/m 0,0 km/h (0 Bft) 0 min 0,0 km/h (0 Bft)
15.04.2010 04:30 16,2 C 5,5 C 0,0 UV-I 0,0 C 47 % 78 % 0 % 1018,3 hPa 0,0 l/m 0,0 km/h (0 Bft) 0 min 0,0 km/h (0 Bft)
15.04.2010 04:32 16,1 C 5,5 C 0,0 UV-I 0,0 C 47 % 78 % 0 % 1018,2 hPa 0,0 l/m 0,0 km/h (0 Bft) 0 min 0,0 km/h (0 Bft)
15.04.2010 04:34 16,2 C 5,4 C 0,0 UV-I 0,0 C 47 % 78 % 0 % 1018,2 hPa 0,0 l/m 0,0 km/h (0 Bft) 0 min 0,0 km/h (0 Bft)
15.04.2010 04:36 16,1 C 5,4 C 0,0 UV-I 0,0 C 47 % 78 % 0 % 1018,2 hPa 0,0 l/m 0,0 km/h (0 Bft) 0 min 0,0 km/h (0 Bft)
15.04.2010 04:38 16,1 C 5,5 C 0,0 UV-I 0,0 C 47 % 78 % 0 % 1018,2 hPa 0,0 l/m 0,0 km/h (0 Bft) 0 min 0,0 km/h (0 Bft)
15.04.2010 04:40 16,1 C 5,4 C 0,0 UV-I 0,0 C 47 % 78 % 0 % 1018,2 hPa 0,0 l/m 0,0 km/h (0 Bft) 0 min 0,0 km/h (0 Bft)
15.04.2010 04:42 16,1 C 5,3 C 0,0 UV-I 0,0 C 47 % 78 % 0 % 1018,2 hPa 0,0 l/m 0,0 km/h (0 Bft) 0 min 0,0 km/h (0 Bft)
15.04.2010 04:44 16,1 C 5,3 C 0,0 UV-I 0,0 C 47 % 78 % 0 % 1018,2 hPa 0,0 l/m 0,0 km/h (0 Bft) 0 min 0,0 km/h (0 Bft)
15.04.2010 04:46 16,1 C 5,2 C 0,0 UV-I 0,0 C 47 % 78 % 0 % 1018,2 hPa 0,0 l/m 0,0 km/h (0 Bft) 0 min 0,0 km/h (0 Bft)
15.04.2010 04:48 16,1 C 5,3 C 0,0 UV-I 0,0 C 47 % 78 % 0 % 1018,2 hPa 0,0 l/m 0,0 km/h (0 Bft) 0 min 0,0 km/h (0 Bft)
15.04.2010 04:50 16,1 C 5,2 C 0,0 UV-I 0,0 C 47 % 79 % 0 % 1018,2 hPa 0,0 l/m 0,0 km/h (0 Bft) 0 min 0,0 km/h (0 Bft)
15.04.2010 04:52 16,1 C 5,1 C 0,0 UV-I 0,0 C 47 % 79 % 0 % 1018,1 hPa 0,0 l/m 0,0 km/h (0 Bft) 0 min 0,0 km/h (0 Bft)
15.04.2010 04:54 16,1 C 5,1 C 0,0 UV-I 0,0 C 47 % 79 % 0 % 1018,1 hPa 0,0 l/m 0,0 km/h (0 Bft) 0 min 0,0 km/h (0 Bft)
15.04.2010 04:56 16,1 C 5,1 C 0,0 UV-I 0,0 C 47 % 79 % 0 % 1018,1 hPa 0,0 l/m 0,0 km/h (0 Bft) 0 min 0,0 km/h (0 Bft)
15.04.2010 04:58 15,9 C 5,0 C 0,0 UV-I 0,0 C 47 % 79 % 0 % 1018,1 hPa 0,0 l/m 0,0 km/h (0 Bft) 0 min 0,0 km/h (0 Bft)
15.04.2010 05:00 15,9 C 5,1 C 0,0 UV-I 0,0 C 47 % 79 % 0 % 1018,1 hPa 0,0 l/m 0,0 km/h (0 Bft) 0 min 5,2 km/h (1 Bft)
15.04.2010 05:02 15,9 C 5,0 C 0,0 UV-I 0,0 C 47 % 79 % 0 % 1018,1 hPa 0,0 l/m 0,0 km/h (0 Bft) 0 min 0,0 km/h (0 Bft)
15.04.2010 05:04 15,9 C 5,0 C 0,0 UV-I 0,0 C 47 % 79 % 0 % 1018,1 hPa 0,0 l/m 0,0 km/h (0 Bft) 0 min 0,0 km/h (0 Bft)
15.04.2010 05:06 15,9 C 5,0 C 0,0 UV-I 0,0 C 47 % 79 % 0 % 1018,1 hPa 0,0 l/m 0,0 km/h (0 Bft) 0 min 0,0 km/h (0 Bft)
15.04.2010 05:08 15,9 C 5,1 C 0,0 UV-I 0,0 C 47 % 79 % 0 % 1018,1 hPa 0,0 l/m 0,0 km/h (0 Bft) 0 min 0,0 km/h (0 Bft)
15.04.2010 05:12 16,0 C 4,9 C 0,0 UV-I 0,0 C 47 % 80 % 0 % 1018,3 hPa 0,0 l/m 0,0 km/h (0 Bft) 0 min 0,0 km/h (0 Bft)
15.04.2010 05:14 16,0 C 4,9 C 0,0 UV-I 0,0 C 47 % 80 % 0 % 1018,3 hPa 0,0 l/m 0,0 km/h (0 Bft) 0 min 0,0 km/h (0 Bft)
15.04.2010 05:16 16,0 C 4,8 C 0,0 UV-I 0,0 C 47 % 80 % 0 % 1018,3 hPa 0,0 l/m 0,0 km/h (0 Bft) 0 min 0,0 km/h (0 Bft)
15.04.2010 05:18 16,0 C 4,9 C 0,0 UV-I 0,0 C 47 % 80 % 0 % 1018,3 hPa 0,0 l/m 0,0 km/h (0 Bft) 0 min 0,0 km/h (0 Bft)
15.04.2010 05:20 16,0 C 4,8 C 0,0 UV-I 0,0 C 47 % 80 % 0 % 1018,3 hPa 0,0 l/m 0,0 km/h (0 Bft) 0 min 0,0 km/h (0 Bft)
15.04.2010 05:22 16,0 C 4,8 C 0,0 UV-I 0,0 C 47 % 80 % 0 % 1018,3 hPa 0,0 l/m 0,0 km/h (0 Bft) 0 min 0,0 km/h (0 Bft)
15.04.2010 05:24 15,8 C 4,7 C 0,0 UV-I 0,0 C 47 % 80 % 0 % 1018,3 hPa 0,0 l/m 0,0 km/h (0 Bft) 0 min 0,0 km/h (0 Bft)
15.04.2010 05:26 15,9 C 4,7 C 0,0 UV-I 0,0 C 47 % 80 % 0 % 1018,3 hPa 0,0 l/m 0,0 km/h (0 Bft) 0 min 0,0 km/h (0 Bft)
15.04.2010 05:28 15,9 C 4,7 C 0,0 UV-I 0,0 C 47 % 80 % 0 % 1018,3 hPa 0,0 l/m 0,0 km/h (0 Bft) 0 min 0,0 km/h (0 Bft)
15.04.2010 05:30 15,9 C 4,7 C 0,0 UV-I 0,0 C 47 % 80 % 0 % 1018,3 hPa 0,0 l/m 0,0 km/h (0 Bft) 0 min 0,0 km/h (0 Bft)
15.04.2010 05:34 15,9 C 4,5 C 0,0 UV-I 0,0 C 47 % 80 % 0 % 1017,8 hPa 0,0 l/m 0,0 km/h (0 Bft) 0 min 0,0 km/h (0 Bft)
15.04.2010 05:36 15,8 C 4,5 C 0,0 UV-I 0,0 C 47 % 81 % 0 % 1017,8 hPa 0,0 l/m 0,0 km/h (0 Bft) 0 min 0,0 km/h (0 Bft)
15.04.2010 05:38 15,9 C 4,4 C 0,0 UV-I 0,0 C 47 % 81 % 0 % 1017,8 hPa 0,0 l/m 0,0 km/h (0 Bft) 0 min 0,0 km/h (0 Bft)
15.04.2010 05:40 15,8 C 4,4 C 0,0 UV-I 0,0 C 48 % 81 % 0 % 1017,8 hPa 0,0 l/m 0,0 km/h (0 Bft) 0 min 0,0 km/h (0 Bft)
15.04.2010 05:42 15,8 C 4,5 C 0,0 UV-I 0,0 C 48 % 81 % 0 % 1017,8 hPa 0,0 l/m 0,0 km/h (0 Bft) 0 min 0,0 km/h (0 Bft)
15.04.2010 05:44 15,8 C 4,4 C 0,0 UV-I 0,0 C 48 % 81 % 0 % 1017,8 hPa 0,0 l/m 0,0 km/h (0 Bft) 0 min 0,0 km/h (0 Bft)
15.04.2010 05:46 15,8 C 4,4 C 0,0 UV-I 0,0 C 48 % 81 % 0 % 1017,8 hPa 0,0 l/m 0,0 km/h (0 Bft) 0 min 0,0 km/h (0 Bft)
15.04.2010 05:48 15,8 C 4,3 C 0,0 UV-I 0,0 C 48 % 81 % 0 % 1017,8 hPa 0,0 l/m 0,0 km/h (0 Bft) 0 min 0,0 km/h (0 Bft)
15.04.2010 05:50 15,8 C 4,3 C 0,0 UV-I 0,0 C 48 % 81 % 0 % 1017,8 hPa 0,0 l/m 0,0 km/h (0 Bft) 0 min 0,0 km/h (0 Bft)
15.04.2010 05:52 15,8 C 4,2 C 0,0 UV-I 0,0 C 48 % 81 % 0 % 1017,8 hPa 0,0 l/m 0,0 km/h (0 Bft) 0 min 0,0 km/h (0 Bft)
15.04.2010 05:54 15,8 C 4,2 C 0,0 UV-I 0,0 C 48 % 81 % 0 % 1017,8 hPa 0,0 l/m 0,0 km/h (0 Bft) 0 min 0,0 km/h (0 Bft)
15.04.2010 05:56 15,8 C 4,2 C 0,0 UV-I 0,0 C 48 % 81 % 0 % 1017,8 hPa 0,0 l/m 0,0 km/h (0 Bft) 0 min 0,0 km/h (0 Bft)
15.04.2010 05:58 15,8 C 4,2 C 0,0 UV-I 0,0 C 48 % 81 % 0 % 1017,8 hPa 0,0 l/m 0,0 km/h (0 Bft) 0 min 0,0 km/h (0 Bft)
15.04.2010 06:00 15,8 C 4,3 C 0,0 UV-I 0,0 C 48 % 82 % 0 % 1017,8 hPa 0,0 l/m 0,0 km/h (0 Bft) 0 min 0,0 km/h (0 Bft)
15.04.2010 06:02 15,8 C 4,3 C 0,0 UV-I 0,0 C 48 % 82 % 0 % 1017,8 hPa 0,0 l/m 0,0 km/h (0 Bft) 0 min 0,0 km/h (0 Bft)
15.04.2010 06:04 15,8 C 4,3 C 0,0 UV-I 0,0 C 48 % 82 % 0 % 1017,8 hPa 0,0 l/m 0,0 km/h (0 Bft) 0 min 0,0 km/h (0 Bft)
15.04.2010 06:06 15,6 C 4,3 C 0,0 UV-I 0,0 C 48 % 82 % 0 % 1017,8 hPa 0,0 l/m 0,0 km/h (0 Bft) 0 min 0,0 km/h (0 Bft)
15.04.2010 06:08 15,6 C 4,3 C 0,0 UV-I 0,0 C 48 % 82 % 0 % 1017,8 hPa 0,0 l/m 0,0 km/h (0 Bft) 0 min 0,0 km/h (0 Bft)
15.04.2010 06:10 15,6 C 4,3 C 0,0 UV-I 0,0 C 48 % 82 % 0 % 1017,8 hPa 0,0 l/m 0,0 km/h (0 Bft) 0 min 0,0 km/h (0 Bft)
15.04.2010 06:12 15,6 C 4,3 C 0,0 UV-I 0,0 C 48 % 83 % 0 % 1018,1 hPa 0,0 l/m 0,0 km/h (0 Bft) 0 min 0,0 km/h (0 Bft)
15.04.2010 06:14 15,6 C 4,3 C 0,0 UV-I 0,0 C 48 % 83 % 0 % 1018,1 hPa 0,0 l/m 0,0 km/h (0 Bft) 0 min 0,0 km/h (0 Bft)
15.04.2010 06:16 15,6 C 4,3 C 0,0 UV-I 0,0 C 48 % 83 % 0 % 1018,1 hPa 0,0 l/m 0,0 km/h (0 Bft) 0 min 0,0 km/h (0 Bft)
15.04.2010 06:18 15,6 C 4,2 C 0,0 UV-I 0,0 C 48 % 83 % 0 % 1018,1 hPa 0,0 l/m 0,0 km/h (0 Bft) 0 min 0,0 km/h (0 Bft)
15.04.2010 06:20 15,6 C 4,2 C 0,0 UV-I 0,0 C 48 % 83 % 0 % 1018,1 hPa 0,0 l/m 0,0 km/h (0 Bft) 0 min 0,0 km/h (0 Bft)
15.04.2010 06:22 15,7 C 4,3 C 0,0 UV-I 0,0 C 48 % 83 % 0 % 1018,1 hPa 0,0 l/m 0,0 km/h (0 Bft) 0 min 0,0 km/h (0 Bft)
15.04.2010 06:24 15,7 C 4,3 C 0,0 UV-I 0,0 C 48 % 83 % 0 % 1018,1 hPa 0,0 l/m 0,0 km/h (0 Bft) 0 min 0,0 km/h (0 Bft)
15.04.2010 06:26 15,7 C 4,3 C 0,0 UV-I 0,0 C 48 % 83 % 0 % 1018,1 hPa 0,0 l/m 0,0 km/h (0 Bft) 0 min 0,0 km/h (0 Bft)
15.04.2010 06:28 15,7 C 4,3 C 0,0 UV-I 0,0 C 48 % 83 % 0 % 1018,1 hPa 0,0 l/m 0,0 km/h (0 Bft) 0 min 0,0 km/h (0 Bft)
15.04.2010 06:30 15,7 C 4,3 C 0,0 UV-I 0,1 C 48 % 83 % 0 % 1018,1 hPa 0,0 l/m 0,0 km/h (0 Bft) 0 min 0,0 km/h (0 Bft)
15.04.2010 06:32 15,7 C 4,4 C 0,0 UV-I 0,0 C 48 % 83 % 0 % 1018,1 hPa 0,0 l/m 0,0 km/h (0 Bft) 0 min 0,0 km/h (0 Bft)
15.04.2010 06:34 15,7 C 4,4 C 0,0 UV-I 0,1 C 48 % 83 % 0 % 1018,1 hPa 0,0 l/m 0,0 km/h (0 Bft) 0 min 0,0 km/h (0 Bft)
15.04.2010 06:36 15,7 C 4,5 C 0,0 UV-I 0,1 C 48 % 83 % 0 % 1018,1 hPa 0,0 l/m 0,0 km/h (0 Bft) 0 min 0,0 km/h (0 Bft)
15.04.2010 06:38 15,7 C 4,4 C 0,0 UV-I 0,2 C 48 % 83 % 0 % 1018,1 hPa 0,0 l/m 0,0 km/h (0 Bft) 0 min 0,0 km/h (0 Bft)
15.04.2010 06:40 15,6 C 4,4 C 0,0 UV-I 0,3 C 48 % 83 % 0 % 1018,1 hPa 0,0 l/m 0,0 km/h (0 Bft) 0 min 0,0 km/h (0 Bft)
15.04.2010 06:42 15,6 C 4,4 C 0,0 UV-I 0,3 C 48 % 83 % 0 % 1018,1 hPa 0,0 l/m 0,0 km/h (0 Bft) 0 min 0,0 km/h (0 Bft)
15.04.2010 06:44 15,6 C 4,5 C 0,0 UV-I 0,3 C 48 % 83 % 0 % 1018,1 hPa 0,0 l/m 0,0 km/h (0 Bft) 0 min 0,0 km/h (0 Bft)
15.04.2010 06:46 15,6 C 4,5 C 0,0 UV-I 0,3 C 48 % 83 % 0 % 1018,1 hPa 0,0 l/m 0,0 km/h (0 Bft) 0 min 0,0 km/h (0 Bft)
15.04.2010 06:48 15,6 C 4,5 C 0,0 UV-I 0,3 C 48 % 83 % 0 % 1018,1 hPa 0,0 l/m 0,0 km/h (0 Bft) 0 min 0,0 km/h (0 Bft)
15.04.2010 06:50 15,6 C 4,6 C 0,0 UV-I 0,2 C 48 % 83 % 0 % 1018,1 hPa 0,0 l/m 0,0 km/h (0 Bft) 0 min 0,0 km/h (0 Bft)
15.04.2010 06:52 15,6 C 4,7 C 0,0 UV-I 0,1 C 48 % 83 % 3 % 1018,3 hPa 0,0 l/m 0,0 km/h (0 Bft) 0 min 0,0 km/h (0 Bft)
15.04.2010 06:54 15,6 C 4,6 C 0,0 UV-I 0,2 C 48 % 83 % 6 % 1018,3 hPa 0,0 l/m 0,0 km/h (0 Bft) 0 min 4,4 km/h (1 Bft)
15.04.2010 06:56 15,6 C 4,7 C 0,0 UV-I 0,1 C 48 % 83 % 3 % 1018,3 hPa 0,0 l/m 0,8 km/h (0 Bft) 0 min 4,8 km/h (1 Bft)
15.04.2010 06:58 15,6 C 4,7 C 0,0 UV-I 0,1 C 48 % 83 % 3 % 1018,3 hPa 0,0 l/m 1,6 km/h (1 Bft) 0 min 6,0 km/h (2 Bft)
15.04.2010 07:00 15,6 C 4,8 C 0,0 UV-I 0,2 C 48 % 83 % 6 % 1018,3 hPa 0,0 l/m 2,0 km/h (1 Bft) 0 min 0,0 km/h (0 Bft)
15.04.2010 07:02 15,6 C 4,7 C 0,0 UV-I 0,3 C 48 % 83 % 9 % 1018,3 hPa 0,0 l/m 2,4 km/h (1 Bft) 0 min 5,6 km/h (1 Bft)
15.04.2010 07:04 15,6 C 4,8 C 0,0 UV-I 0,3 C 48 % 83 % 9 % 1018,3 hPa 0,0 l/m 2,8 km/h (1 Bft) 0 min 4,8 km/h (1 Bft)
15.04.2010 07:06 15,6 C 4,8 C 0,0 UV-I 0,2 C 48 % 83 % 6 % 1018,3 hPa 0,0 l/m 2,8 km/h (1 Bft) 0 min 0,0 km/h (0 Bft)
15.04.2010 07:08 15,6 C 4,8 C 0,0 UV-I 0,2 C 48 % 83 % 6 % 1018,3 hPa 0,0 l/m 2,0 km/h (1 Bft) 0 min 0,0 km/h (0 Bft)
15.04.2010 07:10 15,6 C 4,8 C 0,0 UV-I 0,3 C 48 % 83 % 9 % 1018,3 hPa 0,0 l/m 2,4 km/h (1 Bft) 0 min 5,6 km/h (1 Bft)
15.04.2010 07:12 15,6 C 4,8 C 0,0 UV-I 0,3 C 48 % 83 % 9 % 1018,6 hPa 0,0 l/m 2,8 km/h (1 Bft) 0 min 5,6 km/h (1 Bft)
15.04.2010 07:14 15,6 C 4,9 C 0,0 UV-I 0,2 C 48 % 83 % 6 % 1018,6 hPa 0,0 l/m 2,8 km/h (1 Bft) 0 min 6,0 km/h (2 Bft)
15.04.2010 07:16 15,6 C 5,0 C 0,0 UV-I 0,1 C 48 % 83 % 3 % 1018,6 hPa 0,0 l/m 2,8 km/h (1 Bft) 0 min 5,2 km/h (1 Bft)
15.04.2010 07:18 15,6 C 4,9 C 0,0 UV-I 0,2 C 48 % 82 % 6 % 1018,6 hPa 0,0 l/m 3,2 km/h (1 Bft) 0 min 0,0 km/h (0 Bft)
15.04.2010 07:20 15,6 C 5,1 C 0,0 UV-I 0,0 C 48 % 82 % 0 % 1018,6 hPa 0,0 l/m 2,8 km/h (1 Bft) 0 min 0,0 km/h (0 Bft)
15.04.2010 07:22 15,6 C 5,0 C 0,0 UV-I 0,2 C 48 % 82 % 6 % 1018,6 hPa 0,0 l/m 2,0 km/h (1 Bft) 0 min 0,0 km/h (0 Bft)
15.04.2010 07:24 15,6 C 5,1 C 0,0 UV-I 0,1 C 48 % 82 % 3 % 1018,6 hPa 0,0 l/m 2,0 km/h (1 Bft) 0 min 5,2 km/h (1 Bft)
15.04.2010 07:26 15,6 C 5,0 C 0,0 UV-I 0,2 C 48 % 82 % 6 % 1018,6 hPa 0,0 l/m 2,0 km/h (1 Bft) 0 min 0,0 km/h (0 Bft)
15.04.2010 07:28 15,6 C 5,1 C 0,0 UV-I 0,2 C 48 % 82 % 6 % 1018,6 hPa 0,0 l/m 1,6 km/h (1 Bft) 0 min 0,0 km/h (0 Bft)
15.04.2010 07:30 15,6 C 5,1 C 0,0 UV-I 0,2 C 48 % 82 % 6 % 1018,6 hPa 0,0 l/m 1,6 km/h (1 Bft) 0 min 4,8 km/h (1 Bft)
15.04.2010 07:32 15,6 C 5,1 C 0,0 UV-I 0,2 C 48 % 82 % 6 % 1018,4 hPa 0,0 l/m 1,6 km/h (1 Bft) 0 min 0,0 km/h (0 Bft)
15.04.2010 07:34 15,6 C 5,1 C 0,0 UV-I 0,2 C 48 % 82 % 6 % 1018,4 hPa 0,0 l/m 1,6 km/h (1 Bft) 0 min 4,4 km/h (1 Bft)
15.04.2010 07:36 15,6 C 5,1 C 0,0 UV-I 0,2 C 48 % 82 % 6 % 1018,4 hPa 0,0 l/m 1,2 km/h (1 Bft) 0 min 4,8 km/h (1 Bft)
15.04.2010 07:38 15,6 C 5,2 C 0,0 UV-I 0,2 C 48 % 82 % 6 % 1018,4 hPa 0,0 l/m 1,6 km/h (1 Bft) 0 min 4,4 km/h (1 Bft)
15.04.2010 07:40 15,6 C 5,2 C 0,0 UV-I 0,2 C 48 % 82 % 6 % 1018,4 hPa 0,0 l/m 2,0 km/h (1 Bft) 0 min 6,0 km/h (2 Bft)
15.04.2010 07:42 15,6 C 5,2 C 0,0 UV-I 0,2 C 48 % 82 % 6 % 1018,4 hPa 0,0 l/m 2,4 km/h (1 Bft) 0 min 7,6 km/h (2 Bft)
15.04.2010 07:44 15,6 C 5,2 C 0,0 UV-I 0,3 C 48 % 82 % 9 % 1018,4 hPa 0,0 l/m 3,6 km/h (1 Bft) 0 min 8,0 km/h (2 Bft)
15.04.2010 07:46 15,6 C 5,2 C 0,0 UV-I 0,3 C 48 % 82 % 9 % 1018,4 hPa 0,0 l/m 4,0 km/h (1 Bft) 0 min 0,0 km/h (0 Bft)
15.04.2010 07:48 15,6 C 5,3 C 0,0 UV-I 0,2 C 48 % 82 % 6 % 1018,4 hPa 0,0 l/m 4,0 km/h (1 Bft) 0 min 4,0 km/h (1 Bft)
15.04.2010 07:50 15,6 C 5,3 C 0,0 UV-I 0,2 C 48 % 81 % 6 % 1018,4 hPa 0,0 l/m 3,6 km/h (1 Bft) 0 min 9,2 km/h (2 Bft)
15.04.2010 07:52 15,6 C 5,3 C 0,0 UV-I 0,3 C 48 % 81 % 9 % 1018,6 hPa 0,0 l/m 4,0 km/h (1 Bft) 0 min 7,2 km/h (2 Bft)
15.04.2010 07:54 15,6 C 5,3 C 0,0 UV-I 0,3 C 48 % 81 % 9 % 1018,6 hPa 0,0 l/m 4,0 km/h (1 Bft) 0 min 6,4 km/h (2 Bft)
15.04.2010 07:56 15,6 C 5,3 C 0,0 UV-I 0,3 C 48 % 81 % 9 % 1018,6 hPa 0,0 l/m 3,6 km/h (1 Bft) 0 min 6,4 km/h (2 Bft)
15.04.2010 07:58 15,6 C 5,3 C 0,0 UV-I 0,3 C 48 % 81 % 9 % 1018,6 hPa 0,0 l/m 3,6 km/h (1 Bft) 0 min 5,2 km/h (1 Bft)
15.04.2010 08:00 15,6 C 5,4 C 0,1 UV-I 0,2 C 48 % 81 % 6 % 1018,6 hPa 0,0 l/m 4,0 km/h (1 Bft) 0 min 6,4 km/h (2 Bft)
15.04.2010 08:02 15,6 C 5,5 C 0,1 UV-I 0,1 C 48 % 81 % 3 % 1018,6 hPa 0,0 l/m 4,4 km/h (1 Bft) 0 min 0,0 km/h (0 Bft)
15.04.2010 08:04 15,6 C 5,4 C 0,1 UV-I 0,3 C 48 % 81 % 9 % 1018,6 hPa 0,0 l/m 4,0 km/h (1 Bft) 0 min 6,0 km/h (2 Bft)
15.04.2010 08:06 15,6 C 5,4 C 0,0 UV-I 0,3 C 48 % 81 % 9 % 1018,6 hPa 0,0 l/m 3,6 km/h (1 Bft) 0 min 5,2 km/h (1 Bft)
15.04.2010 08:08 15,6 C 5,5 C 0,0 UV-I 0,2 C 48 % 81 % 6 % 1018,6 hPa 0,0 l/m 3,6 km/h (1 Bft) 0 min 10,4 km/h (2 Bft)
15.04.2010 08:10 15,6 C 5,5 C 0,0 UV-I 0,2 C 48 % 81 % 6 % 1018,6 hPa 0,0 l/m 4,4 km/h (1 Bft) 0 min 10,4 km/h (2 Bft)
15.04.2010 08:12 15,6 C 5,5 C 0,0 UV-I 0,3 C 48 % 81 % 9 % 1018,6 hPa 0,0 l/m 4,0 km/h (1 Bft) 0 min 6,8 km/h (2 Bft)
15.04.2010 08:14 15,6 C 5,5 C 0,0 UV-I 0,3 C 48 % 81 % 9 % 1018,6 hPa 0,0 l/m 4,4 km/h (1 Bft) 0 min 4,4 km/h (1 Bft)
15.04.2010 08:16 15,6 C 5,6 C 0,0 UV-I 0,2 C 48 % 81 % 6 % 1018,6 hPa 0,0 l/m 4,0 km/h (1 Bft) 0 min 7,6 km/h (2 Bft)
15.04.2010 08:18 15,6 C 5,6 C 0,0 UV-I 0,3 C 48 % 81 % 9 % 1018,6 hPa 0,0 l/m 4,8 km/h (1 Bft) 0 min 5,6 km/h (1 Bft)
15.04.2010 08:20 15,6 C 5,6 C 0,0 UV-I 0,3 C 48 % 81 % 9 % 1018,6 hPa 0,0 l/m 4,4 km/h (1 Bft) 0 min 7,2 km/h (2 Bft)
15.04.2010 08:22 15,6 C 5,6 C 0,0 UV-I 0,3 C 48 % 81 % 9 % 1018,6 hPa 0,0 l/m 4,0 km/h (1 Bft) 0 min 6,0 km/h (2 Bft)
15.04.2010 08:24 15,6 C 5,6 C 0,0 UV-I 0,5 C 48 % 81 % 14 % 1018,6 hPa 0,0 l/m 4,0 km/h (1 Bft) 0 min 7,2 km/h (2 Bft)
15.04.2010 08:26 15,6 C 5,7 C 0,0 UV-I 0,4 C 48 % 81 % 11 % 1018,6 hPa 0,0 l/m 4,0 km/h (1 Bft) 0 min 7,2 km/h (2 Bft)
15.04.2010 08:28 15,6 C 5,9 C 0,0 UV-I 0,4 C 48 % 81 % 11 % 1018,6 hPa 0,0 l/m 4,4 km/h (1 Bft) 0 min 4,8 km/h (1 Bft)
15.04.2010 08:30 15,6 C 5,9 C 0,4 UV-I 0,6 C 48 % 81 % 17 % 1018,6 hPa 0,0 l/m 4,4 km/h (1 Bft) 0 min 4,0 km/h (1 Bft)
15.04.2010 08:32 15,6 C 5,8 C 0,4 UV-I 0,9 C 48 % 81 % 26 % 1018,6 hPa 0,0 l/m 4,4 km/h (1 Bft) 0 min 6,8 km/h (2 Bft)
15.04.2010 08:34 15,6 C 5,9 C 0,4 UV-I 0,9 C 48 % 81 % 26 % 1018,6 hPa 0,0 l/m 4,8 km/h (1 Bft) 0 min 9,6 km/h (2 Bft)
15.04.2010 08:36 15,6 C 6,0 C 0,6 UV-I 1,0 C 48 % 80 % 29 % 1018,6 hPa 0,0 l/m 5,6 km/h (1 Bft) 0 min 8,4 km/h (2 Bft)
15.04.2010 08:38 15,6 C 6,0 C 0,6 UV-I 1,0 C 48 % 80 % 29 % 1018,6 hPa 0,0 l/m 5,6 km/h (1 Bft) 0 min 7,2 km/h (2 Bft)
15.04.2010 08:40 15,6 C 6,1 C 0,7 UV-I 1,0 C 49 % 80 % 29 % 1018,6 hPa 0,0 l/m 5,6 km/h (1 Bft) 0 min 11,6 km/h (2 Bft)
15.04.2010 08:44 15,6 C 6,1 C 0,7 UV-I 1,0 C 49 % 79 % 29 % 1018,6 hPa 0,0 l/m 7,6 km/h (2 Bft) 0 min 12,0 km/h (2 Bft)
15.04.2010 08:46 15,6 C 6,2 C 0,6 UV-I 0,9 C 49 % 79 % 26 % 1018,6 hPa 0,0 l/m 7,6 km/h (2 Bft) 0 min 7,6 km/h (2 Bft)
15.04.2010 08:48 15,6 C 6,3 C 0,6 UV-I 0,8 C 49 % 79 % 23 % 1018,6 hPa 0,0 l/m 7,6 km/h (2 Bft) 0 min 12,0 km/h (2 Bft)
15.04.2010 08:50 15,6 C 6,3 C 0,6 UV-I 0,8 C 49 % 79 % 23 % 1018,6 hPa 0,0 l/m 8,0 km/h (2 Bft) 0 min 16,1 km/h (3 Bft)
15.04.2010 08:52 15,6 C 6,3 C 0,6 UV-I 0,8 C 49 % 79 % 23 % 1018,7 hPa 0,0 l/m 7,6 km/h (2 Bft) 0 min 9,6 km/h (2 Bft)
15.04.2010 08:54 15,6 C 6,3 C 0,6 UV-I 0,8 C 49 % 78 % 23 % 1018,7 hPa 0,0 l/m 7,2 km/h (2 Bft) 0 min 7,6 km/h (2 Bft)
15.04.2010 08:56 15,6 C 6,3 C 0,8 UV-I 0,8 C 49 % 78 % 23 % 1018,7 hPa 0,0 l/m 7,2 km/h (2 Bft) 0 min 7,2 km/h (2 Bft)
15.04.2010 08:58 15,6 C 6,5 C 0,8 UV-I 0,7 C 49 % 79 % 20 % 1018,7 hPa 0,0 l/m 7,2 km/h (2 Bft) 0 min 10,8 km/h (2 Bft)
15.04.2010 09:00 15,6 C 6,4 C 0,9 UV-I 0,8 C 49 % 79 % 23 % 1018,7 hPa 0,0 l/m 6,8 km/h (2 Bft) 0 min 8,8 km/h (2 Bft)
15.04.2010 09:02 15,6 C 6,5 C 0,9 UV-I 0,8 C 49 % 79 % 23 % 1018,7 hPa 0,0 l/m 7,2 km/h (2 Bft) 0 min 12,4 km/h (3 Bft)
15.04.2010 09:04 15,6 C 6,5 C 0,9 UV-I 0,8 C 49 % 78 % 23 % 1018,7 hPa 0,0 l/m 7,2 km/h (2 Bft) 0 min 8,8 km/h (2 Bft)
15.04.2010 09:06 15,6 C 6,7 C 1,0 UV-I 0,6 C 49 % 78 % 17 % 1018,7 hPa 0,0 l/m 6,8 km/h (2 Bft) 0 min 0,0 km/h (0 Bft)
15.04.2010 09:08 15,6 C 6,7 C 1,0 UV-I 0,6 C 49 % 78 % 17 % 1018,7 hPa 0,0 l/m 6,4 km/h (2 Bft) 0 min 9,2 km/h (2 Bft)
15.04.2010 09:10 15,7 C 6,6 C 1,0 UV-I 0,8 C 49 % 78 % 23 % 1018,7 hPa 0,0 l/m 6,0 km/h (2 Bft) 0 min 5,6 km/h (1 Bft)
15.04.2010 09:12 15,6 C 6,7 C 1,0 UV-I 0,8 C 49 % 78 % 23 % 1018,6 hPa 0,0 l/m 5,2 km/h (1 Bft) 0 min 6,8 km/h (2 Bft)
15.04.2010 09:14 15,6 C 6,8 C 1,0 UV-I 0,7 C 49 % 78 % 20 % 1018,6 hPa 0,0 l/m 4,8 km/h (1 Bft) 0 min 4,8 km/h (1 Bft)
15.04.2010 09:16 15,6 C 6,8 C 1,0 UV-I 0,8 C 49 % 77 % 23 % 1018,6 hPa 0,0 l/m 4,4 km/h (1 Bft) 0 min 6,8 km/h (2 Bft)
15.04.2010 09:18 15,7 C 6,8 C 1,0 UV-I 0,8 C 49 % 77 % 23 % 1018,6 hPa 0,0 l/m 5,6 km/h (1 Bft) 0 min 10,8 km/h (2 Bft)
15.04.2010 09:20 15,7 C 6,9 C 1,0 UV-I 0,7 C 49 % 77 % 20 % 1018,6 hPa 0,0 l/m 6,0 km/h (2 Bft) 0 min 6,8 km/h (2 Bft)
15.04.2010 09:22 15,6 C 6,8 C 1,0 UV-I 0,8 C 49 % 77 % 23 % 1018,6 hPa 0,0 l/m 6,0 km/h (2 Bft) 0 min 6,8 km/h (2 Bft)
15.04.2010 09:24 15,6 C 6,9 C 1,0 UV-I 0,8 C 49 % 77 % 23 % 1018,6 hPa 0,0 l/m 5,6 km/h (1 Bft) 0 min 4,4 km/h (1 Bft)
15.04.2010 09:26 15,7 C 6,9 C 0,9 UV-I 0,9 C 49 % 77 % 26 % 1018,6 hPa 0,0 l/m 6,0 km/h (2 Bft) 0 min 12,0 km/h (2 Bft)
15.04.2010 09:30 15,7 C 7,0 C 1,1 UV-I 0,9 C 49 % 76 % 26 % 1018,6 hPa 0,0 l/m 5,6 km/h (1 Bft) 0 min 10,4 km/h (2 Bft)
15.04.2010 09:32 15,7 C 7,1 C 1,1 UV-I 0,8 C 49 % 76 % 23 % 1018,8 hPa 0,0 l/m 6,0 km/h (2 Bft) 0 min 7,2 km/h (2 Bft)
15.04.2010 09:34 15,6 C 7,1 C 1,1 UV-I 0,9 C 49 % 76 % 26 % 1018,8 hPa 0,0 l/m 6,8 km/h (2 Bft) 0 min 4,4 km/h (1 Bft)
15.04.2010 09:36 15,7 C 7,1 C 1,2 UV-I 1,0 C 49 % 76 % 29 % 1018,8 hPa 0,0 l/m 7,2 km/h (2 Bft) 0 min 5,6 km/h (1 Bft)
15.04.2010 09:38 15,7 C 7,2 C 1,2 UV-I 0,9 C 49 % 76 % 26 % 1018,8 hPa 0,0 l/m 6,8 km/h (2 Bft) 0 min 5,2 km/h (1 Bft)
15.04.2010 09:40 15,7 C 7,2 C 1,3 UV-I 0,9 C 49 % 76 % 26 % 1018,8 hPa 0,0 l/m 6,4 km/h (2 Bft) 0 min 10,0 km/h (2 Bft)
15.04.2010 09:42 15,7 C 7,2 C 1,3 UV-I 1,0 C 49 % 76 % 29 % 1018,8 hPa 0,0 l/m 6,8 km/h (2 Bft) 0 min 13,7 km/h (3 Bft)
15.04.2010 09:44 15,7 C 7,2 C 1,3 UV-I 1,0 C 49 % 75 % 29 % 1018,8 hPa 0,0 l/m 6,8 km/h (2 Bft) 0 min 9,2 km/h (2 Bft)
15.04.2010 09:46 15,6 C 7,3 C 1,0 UV-I 1,0 C 49 % 75 % 29 % 1018,8 hPa 0,0 l/m 7,6 km/h (2 Bft) 0 min 12,4 km/h (3 Bft)
15.04.2010 09:48 15,6 C 7,4 C 1,0 UV-I 0,9 C 49 % 75 % 26 % 1018,8 hPa 0,0 l/m 7,6 km/h (2 Bft) 0 min 8,4 km/h (2 Bft)
15.04.2010 09:50 15,6 C 7,5 C 1,2 UV-I 1,3 C 49 % 75 % 37 % 1018,8 hPa 0,0 l/m 7,6 km/h (2 Bft) 0 min 19,7 km/h (3 Bft)
15.04.2010 09:52 15,7 C 7,4 C 1,2 UV-I 2,5 C 49 % 75 % 71 % 1019,0 hPa 0,0 l/m 7,2 km/h (2 Bft) 0 min 6,8 km/h (2 Bft)
15.04.2010 09:54 15,6 C 7,5 C 1,2 UV-I 3,2 C 49 % 75 % 91 % 1019,0 hPa 0,0 l/m 6,8 km/h (2 Bft) 2 min 9,2 km/h (2 Bft)
15.04.2010 09:56 15,6 C 7,6 C 0,9 UV-I 3,9 C 49 % 74 % 100 % 1019,0 hPa 0,0 l/m 7,2 km/h (2 Bft) 2 min 7,6 km/h (2 Bft)
15.04.2010 09:58 15,6 C 7,6 C 0,9 UV-I 4,5 C 49 % 74 % 100 % 1019,0 hPa 0,0 l/m 6,8 km/h (2 Bft) 2 min 6,0 km/h (2 Bft)
15.04.2010 10:00 15,6 C 7,7 C 1,0 UV-I 4,8 C 49 % 74 % 100 % 1019,0 hPa 0,0 l/m 6,8 km/h (2 Bft) 2 min 7,6 km/h (2 Bft)
15.04.2010 10:02 15,6 C 7,6 C 1,0 UV-I 5,4 C 49 % 74 % 100 % 1019,0 hPa 0,0 l/m 6,8 km/h (2 Bft) 2 min 8,4 km/h (2 Bft)
15.04.2010 10:04 15,6 C 7,8 C 1,0 UV-I 5,6 C 49 % 74 % 100 % 1019,0 hPa 0,0 l/m 6,8 km/h (2 Bft) 2 min 8,8 km/h (2 Bft)
15.04.2010 10:06 15,6 C 7,9 C 1,2 UV-I 5,7 C 49 % 74 % 100 % 1019,0 hPa 0,0 l/m 6,4 km/h (2 Bft) 2 min 9,6 km/h (2 Bft)
15.04.2010 10:08 15,6 C 7,9 C 1,2 UV-I 6,0 C 49 % 74 % 100 % 1019,0 hPa 0,0 l/m 5,6 km/h (1 Bft) 2 min 6,4 km/h (2 Bft)
15.04.2010 10:10 15,6 C 7,9 C 1,1 UV-I 6,1 C 49 % 74 % 100 % 1019,0 hPa 0,0 l/m 4,8 km/h (1 Bft) 2 min 0,0 km/h (0 Bft)
15.04.2010 10:12 15,6 C 8,0 C 1,1 UV-I 6,5 C 49 % 74 % 100 % 1019,2 hPa 0,0 l/m 4,0 km/h (1 Bft) 2 min 4,4 km/h (1 Bft)
15.04.2010 10:14 15,6 C 8,0 C 1,1 UV-I 7,0 C 49 % 74 % 100 % 1019,2 hPa 0,0 l/m 4,4 km/h (1 Bft) 2 min 8,8 km/h (2 Bft)
15.04.2010 10:16 15,6 C 8,1 C 1,4 UV-I 6,9 C 49 % 73 % 100 % 1019,2 hPa 0,0 l/m 5,6 km/h (1 Bft) 2 min 12,0 km/h (2 Bft)
15.04.2010 10:18 15,6 C 8,1 C 1,4 UV-I 6,7 C 49 % 72 % 100 % 1019,2 hPa 0,0 l/m 6,0 km/h (2 Bft) 2 min 9,2 km/h (2 Bft)
15.04.2010 10:20 15,6 C 8,3 C 1,2 UV-I 6,6 C 49 % 73 % 100 % 1019,2 hPa 0,0 l/m 6,8 km/h (2 Bft) 2 min 20,1 km/h (4 Bft)
15.04.2010 10:22 15,6 C 8,3 C 1,2 UV-I 6,7 C 49 % 73 % 100 % 1019,2 hPa 0,0 l/m 7,2 km/h (2 Bft) 2 min 7,2 km/h (2 Bft)
15.04.2010 10:24 15,6 C 8,4 C 1,2 UV-I 6,6 C 49 % 72 % 100 % 1019,2 hPa 0,0 l/m 8,4 km/h (2 Bft) 2 min 7,6 km/h (2 Bft)
15.04.2010 10:26 15,6 C 8,5 C 1,3 UV-I 6,7 C 49 % 73 % 100 % 1019,2 hPa 0,0 l/m 6,8 km/h (2 Bft) 2 min 0,0 km/h (0 Bft)
15.04.2010 10:28 15,6 C 8,5 C 1,3 UV-I 7,0 C 49 % 72 % 100 % 1019,2 hPa 0,0 l/m 6,0 km/h (2 Bft) 2 min 8,0 km/h (2 Bft)
15.04.2010 10:30 15,6 C 8,6 C 1,9 UV-I 7,1 C 49 % 72 % 100 % 1019,2 hPa 0,0 l/m 6,0 km/h (2 Bft) 2 min 6,8 km/h (2 Bft)
15.04.2010 10:32 15,8 C 8,7 C 1,9 UV-I 7,1 C 49 % 72 % 100 % 1019,1 hPa 0,0 l/m 5,6 km/h (1 Bft) 2 min 6,8 km/h (2 Bft)
15.04.2010 10:34 15,8 C 8,8 C 1,9 UV-I 7,2 C 49 % 72 % 100 % 1019,1 hPa 0,0 l/m 4,0 km/h (1 Bft) 2 min 5,6 km/h (1 Bft)
15.04.2010 10:36 15,6 C 8,9 C 1,9 UV-I 7,5 C 49 % 72 % 100 % 1019,1 hPa 0,0 l/m 4,4 km/h (1 Bft) 2 min 7,2 km/h (2 Bft)
15.04.2010 10:38 15,8 C 8,9 C 1,9 UV-I 7,6 C 49 % 71 % 100 % 1019,1 hPa 0,0 l/m 5,2 km/h (1 Bft) 2 min 7,2 km/h (2 Bft)
15.04.2010 10:40 15,8 C 9,1 C 2,0 UV-I 7,5 C 49 % 71 % 100 % 1019,1 hPa 0,0 l/m 5,2 km/h (1 Bft) 2 min 10,0 km/h (2 Bft)
15.04.2010 10:42 15,8 C 9,1 C 2,0 UV-I 7,6 C 49 % 71 % 100 % 1019,1 hPa 0,0 l/m 4,8 km/h (1 Bft) 2 min 5,2 km/h (1 Bft)
15.04.2010 10:44 15,8 C 9,3 C 2,0 UV-I 7,4 C 49 % 71 % 100 % 1019,1 hPa 0,0 l/m 5,2 km/h (1 Bft) 2 min 4,8 km/h (1 Bft)
15.04.2010 10:46 15,8 C 9,3 C 1,7 UV-I 7,7 C 49 % 71 % 100 % 1019,1 hPa 0,0 l/m 4,8 km/h (1 Bft) 2 min 4,4 km/h (1 Bft)
15.04.2010 10:48 15,8 C 9,3 C 1,7 UV-I 8,1 C 49 % 71 % 100 % 1019,1 hPa 0,0 l/m 4,0 km/h (1 Bft) 2 min 16,5 km/h (3 Bft)
15.04.2010 10:50 15,8 C 9,5 C 3,0 UV-I 7,9 C 49 % 70 % 100 % 1019,1 hPa 0,0 l/m 4,8 km/h (1 Bft) 2 min 9,2 km/h (2 Bft)
15.04.2010 10:52 15,8 C 9,7 C 3,0 UV-I 7,7 C 49 % 70 % 100 % 1019,3 hPa 0,0 l/m 4,8 km/h (1 Bft) 2 min 8,4 km/h (2 Bft)
15.04.2010 10:54 15,8 C 9,6 C 3,0 UV-I 7,8 C 49 % 70 % 100 % 1019,3 hPa 0,0 l/m 5,2 km/h (1 Bft) 2 min 7,2 km/h (2 Bft)
15.04.2010 10:56 15,8 C 9,7 C 2,6 UV-I 7,8 C 50 % 70 % 100 % 1019,3 hPa 0,0 l/m 6,4 km/h (2 Bft) 2 min 14,1 km/h (3 Bft)
15.04.2010 10:58 15,8 C 9,9 C 2,6 UV-I 7,5 C 49 % 69 % 100 % 1019,3 hPa 0,0 l/m 7,2 km/h (2 Bft) 2 min 8,8 km/h (2 Bft)
15.04.2010 11:00 15,8 C 9,9 C 2,2 UV-I 7,6 C 50 % 69 % 100 % 1019,3 hPa 0,0 l/m 6,8 km/h (2 Bft) 2 min 10,0 km/h (2 Bft)
15.04.2010 11:02 15,8 C 10,0 C 2,2 UV-I 7,6 C 50 % 69 % 100 % 1019,3 hPa 0,0 l/m 6,4 km/h (2 Bft) 2 min 0,0 km/h (0 Bft)
15.04.2010 11:04 15,8 C 10,1 C 2,2 UV-I 7,8 C 50 % 69 % 100 % 1019,3 hPa 0,0 l/m 5,6 km/h (1 Bft) 2 min 0,0 km/h (0 Bft)
15.04.2010 11:06 15,8 C 10,3 C 4,5 UV-I 7,9 C 50 % 69 % 100 % 1019,3 hPa 0,0 l/m 4,8 km/h (1 Bft) 2 min 0,0 km/h (0 Bft)
15.04.2010 11:08 15,8 C 10,3 C 4,5 UV-I 8,4 C 50 % 69 % 100 % 1019,3 hPa 0,0 l/m 4,0 km/h (1 Bft) 2 min 7,6 km/h (2 Bft)
15.04.2010 11:10 15,9 C 10,4 C 3,6 UV-I 8,3 C 50 % 67 % 100 % 1019,3 hPa 0,0 l/m 4,8 km/h (1 Bft) 2 min 23,7 km/h (4 Bft)
15.04.2010 11:12 15,9 C 10,4 C 3,6 UV-I 7,9 C 50 % 66 % 100 % 1019,5 hPa 0,0 l/m 4,8 km/h (1 Bft) 2 min 11,6 km/h (2 Bft)
15.04.2010 11:14 15,9 C 10,4 C 3,6 UV-I 7,7 C 49 % 66 % 100 % 1019,5 hPa 0,0 l/m 6,8 km/h (2 Bft) 2 min 14,9 km/h (3 Bft)
15.04.2010 11:16 15,9 C 10,5 C 3,8 UV-I 7,4 C 50 % 66 % 100 % 1019,5 hPa 0,0 l/m 8,0 km/h (2 Bft) 2 min 7,2 km/h (2 Bft)
15.04.2010 11:18 15,9 C 10,5 C 3,8 UV-I 7,3 C 49 % 66 % 100 % 1019,5 hPa 0,0 l/m 8,8 km/h (2 Bft) 2 min 8,8 km/h (2 Bft)
15.04.2010 11:20 15,9 C 10,6 C 2,6 UV-I 7,1 C 49 % 66 % 100 % 1019,5 hPa 0,0 l/m 8,8 km/h (2 Bft) 2 min 11,6 km/h (2 Bft)
15.04.2010 11:22 15,9 C 10,7 C 2,6 UV-I 7,0 C 49 % 65 % 100 % 1019,5 hPa 0,0 l/m 8,8 km/h (2 Bft) 2 min 9,6 km/h (2 Bft)
15.04.2010 11:24 15,9 C 10,8 C 2,6 UV-I 6,7 C 49 % 65 % 100 % 1019,5 hPa 0,0 l/m 9,6 km/h (2 Bft) 2 min 10,0 km/h (2 Bft)
15.04.2010 11:26 15,9 C 10,9 C 2,7 UV-I 6,5 C 49 % 65 % 100 % 1019,5 hPa 0,0 l/m 8,8 km/h (2 Bft) 2 min 10,4 km/h (2 Bft)
15.04.2010 11:28 15,9 C 10,9 C 2,7 UV-I 6,6 C 49 % 64 % 100 % 1019,5 hPa 0,0 l/m 8,4 km/h (2 Bft) 2 min 14,9 km/h (3 Bft)
15.04.2010 11:30 15,8 C 11,0 C 2,7 UV-I 6,6 C 49 % 64 % 100 % 1019,5 hPa 0,0 l/m 9,2 km/h (2 Bft) 2 min 9,2 km/h (2 Bft)
15.04.2010 11:32 15,8 C 11,1 C 2,7 UV-I 6,5 C 49 % 64 % 100 % 1019,5 hPa 0,0 l/m 8,4 km/h (2 Bft) 2 min 4,0 km/h (1 Bft)
15.04.2010 11:34 15,8 C 11,2 C 2,7 UV-I 6,6 C 49 % 63 % 100 % 1019,5 hPa 0,0 l/m 8,0 km/h (2 Bft) 2 min 13,7 km/h (3 Bft)
15.04.2010 11:36 16,0 C 11,2 C 6,9 UV-I 6,7 C 49 % 64 % 100 % 1019,5 hPa 0,0 l/m 8,4 km/h (2 Bft) 2 min 16,5 km/h (3 Bft)
15.04.2010 11:38 16,0 C 11,3 C 6,9 UV-I 6,6 C 49 % 63 % 100 % 1019,5 hPa 0,0 l/m 8,4 km/h (2 Bft) 2 min 8,0 km/h (2 Bft)
15.04.2010 11:40 16,0 C 11,5 C 7,3 UV-I 6,6 C 49 % 64 % 100 % 1019,5 hPa 0,0 l/m 8,0 km/h (2 Bft) 2 min 9,2 km/h (2 Bft)
15.04.2010 11:42 16,0 C 11,5 C 7,3 UV-I 7,0 C 50 % 63 % 100 % 1019,5 hPa 0,0 l/m 7,6 km/h (2 Bft) 2 min 13,7 km/h (3 Bft)
15.04.2010 11:44 16,0 C 11,7 C 7,3 UV-I 6,9 C 49 % 63 % 100 % 1019,5 hPa 0,0 l/m 8,4 km/h (2 Bft) 2 min 9,6 km/h (2 Bft)
15.04.2010 11:46 16,0 C 11,6 C 7,0 UV-I 7,0 C 49 % 63 % 100 % 1019,5 hPa 0,0 l/m 7,6 km/h (2 Bft) 2 min 14,5 km/h (3 Bft)
15.04.2010 11:48 16,0 C 11,8 C 7,0 UV-I 6,8 C 49 % 62 % 100 % 1019,5 hPa 0,0 l/m 7,6 km/h (2 Bft) 2 min 13,7 km/h (3 Bft)
15.04.2010 11:50 16,0 C 11,9 C 6,5 UV-I 6,6 C 49 % 62 % 100 % 1019,5 hPa 0,0 l/m 8,8 km/h (2 Bft) 2 min 12,8 km/h (3 Bft)
15.04.2010 11:52 16,0 C 11,8 C 6,5 UV-I 6,5 C 49 % 61 % 100 % 1019,6 hPa 0,0 l/m 9,6 km/h (2 Bft) 2 min 7,6 km/h (2 Bft)
15.04.2010 11:54 16,0 C 11,9 C 6,5 UV-I 6,4 C 49 % 61 % 100 % 1019,6 hPa 0,0 l/m 9,2 km/h (2 Bft) 2 min 10,0 km/h (2 Bft)
15.04.2010 11:56 16,0 C 12,0 C 7,4 UV-I 6,4 C 49 % 61 % 100 % 1019,6 hPa 0,0 l/m 9,2 km/h (2 Bft) 2 min 8,0 km/h (2 Bft)
15.04.2010 11:58 15,9 C 12,0 C 7,4 UV-I 6,5 C 49 % 61 % 100 % 1019,6 hPa 0,0 l/m 9,2 km/h (2 Bft) 2 min 15,3 km/h (3 Bft)
15.04.2010 12:00 15,9 C 12,1 C 7,5 UV-I 6,5 C 49 % 60 % 100 % 1019,6 hPa 0,0 l/m 8,8 km/h (2 Bft) 2 min 12,8 km/h (3 Bft)
15.04.2010 12:02 15,9 C 12,1 C 7,5 UV-I 6,5 C 49 % 60 % 100 % 1019,6 hPa 0,0 l/m 8,0 km/h (2 Bft) 2 min 14,1 km/h (3 Bft)
15.04.2010 12:04 16,1 C 12,1 C 7,5 UV-I 6,5 C 49 % 60 % 100 % 1019,6 hPa 0,0 l/m 8,0 km/h (2 Bft) 2 min 12,4 km/h (3 Bft)
15.04.2010 12:06 15,9 C 12,2 C 7,4 UV-I 6,3 C 49 % 60 % 100 % 1019,6 hPa 0,0 l/m 8,8 km/h (2 Bft) 2 min 7,2 km/h (2 Bft)
15.04.2010 12:08 15,9 C 12,3 C 7,4 UV-I 6,2 C 49 % 60 % 100 % 1019,6 hPa 0,0 l/m 9,2 km/h (2 Bft) 2 min 7,2 km/h (2 Bft)
15.04.2010 12:10 16,1 C 12,5 C 7,8 UV-I 6,2 C 49 % 60 % 100 % 1019,6 hPa 0,0 l/m 8,8 km/h (2 Bft) 2 min 6,8 km/h (2 Bft)
15.04.2010 12:12 15,9 C 12,5 C 7,8 UV-I 6,2 C 49 % 60 % 100 % 1019,5 hPa 0,0 l/m 8,4 km/h (2 Bft) 2 min 0,0 km/h (0 Bft)
15.04.2010 12:14 16,1 C 12,5 C 7,8 UV-I 6,4 C 49 % 60 % 100 % 1019,5 hPa 0,0 l/m 8,0 km/h (2 Bft) 2 min 13,7 km/h (3 Bft)
15.04.2010 12:16 16,1 C 12,6 C 7,5 UV-I 6,4 C 49 % 60 % 100 % 1019,5 hPa 0,0 l/m 8,0 km/h (2 Bft) 2 min 8,0 km/h (2 Bft)
15.04.2010 12:18 16,1 C 12,7 C 7,5 UV-I 6,4 C 49 % 60 % 100 % 1019,5 hPa 0,0 l/m 7,6 km/h (2 Bft) 2 min 4,8 km/h (1 Bft)
15.04.2010 12:20 16,1 C 12,8 C 7,7 UV-I 6,5 C 49 % 59 % 100 % 1019,5 hPa 0,0 l/m 8,0 km/h (2 Bft) 2 min 11,2 km/h (2 Bft)
15.04.2010 12:22 16,1 C 12,9 C 7,7 UV-I 6,5 C 49 % 59 % 100 % 1019,5 hPa 0,0 l/m 7,2 km/h (2 Bft) 2 min 6,0 km/h (2 Bft)
15.04.2010 12:24 16,1 C 13,1 C 7,7 UV-I 6,5 C 49 % 59 % 100 % 1019,5 hPa 0,0 l/m 7,2 km/h (2 Bft) 2 min 8,8 km/h (2 Bft)
15.04.2010 12:26 16,2 C 13,1 C 7,7 UV-I 6,8 C 49 % 58 % 100 % 1019,5 hPa 0,0 l/m 6,8 km/h (2 Bft) 2 min 16,1 km/h (3 Bft)
15.04.2010 12:28 16,2 C 13,1 C 7,7 UV-I 6,8 C 49 % 58 % 100 % 1019,5 hPa 0,0 l/m 7,2 km/h (2 Bft) 2 min 12,8 km/h (3 Bft)
15.04.2010 12:30 16,2 C 13,2 C 8,1 UV-I 6,8 C 49 % 58 % 100 % 1019,5 hPa 0,0 l/m 6,8 km/h (2 Bft) 2 min 9,2 km/h (2 Bft)
15.04.2010 12:32 16,2 C 13,2 C 8,1 UV-I 7,0 C 49 % 58 % 100 % 1019,8 hPa 0,0 l/m 6,4 km/h (2 Bft) 2 min 12,8 km/h (3 Bft)
15.04.2010 12:34 16,2 C 13,3 C 8,1 UV-I 7,1 C 49 % 58 % 100 % 1019,8 hPa 0,0 l/m 6,4 km/h (2 Bft) 2 min 9,6 km/h (2 Bft)
15.04.2010 12:36 16,2 C 13,5 C 8,1 UV-I 7,1 C 49 % 57 % 100 % 1019,8 hPa 0,0 l/m 6,8 km/h (2 Bft) 2 min 11,2 km/h (2 Bft)
15.04.2010 12:38 16,2 C 13,5 C 8,1 UV-I 7,3 C 49 % 58 % 100 % 1019,8 hPa 0,0 l/m 6,0 km/h (2 Bft) 2 min 12,4 km/h (3 Bft)
15.04.2010 12:42 16,2 C 13,6 C 7,9 UV-I 7,0 C 49 % 56 % 100 % 1019,8 hPa 0,0 l/m 8,4 km/h (2 Bft) 2 min 18,1 km/h (3 Bft)
15.04.2010 12:44 16,3 C 13,7 C 7,9 UV-I 6,9 C 49 % 57 % 100 % 1019,8 hPa 0,0 l/m 7,2 km/h (2 Bft) 2 min 0,0 km/h (0 Bft)
15.04.2010 12:46 16,3 C 13,8 C 8,0 UV-I 7,1 C 49 % 57 % 100 % 1019,8 hPa 0,0 l/m 6,8 km/h (2 Bft) 2 min 0,0 km/h (0 Bft)
15.04.2010 12:48 16,2 C 13,9 C 8,0 UV-I 7,2 C 49 % 56 % 100 % 1019,8 hPa 0,0 l/m 7,6 km/h (2 Bft) 2 min 0,0 km/h (0 Bft)
15.04.2010 12:50 16,3 C 14,1 C 8,0 UV-I 7,0 C 49 % 56 % 100 % 1019,8 hPa 0,0 l/m 7,6 km/h (2 Bft) 2 min 22,5 km/h (4 Bft)
15.04.2010 12:52 16,4 C 14,0 C 8,0 UV-I 7,1 C 49 % 55 % 100 % 1019,8 hPa 0,0 l/m 6,8 km/h (2 Bft) 2 min 12,0 km/h (2 Bft)
15.04.2010 12:54 16,4 C 14,1 C 8,0 UV-I 6,9 C 49 % 56 % 100 % 1019,8 hPa 0,0 l/m 6,8 km/h (2 Bft) 2 min 6,0 km/h (2 Bft)
15.04.2010 12:56 16,4 C 14,3 C 8,2 UV-I 6,7 C 49 % 56 % 100 % 1019,8 hPa 0,0 l/m 7,2 km/h (2 Bft) 2 min 4,0 km/h (1 Bft)
15.04.2010 12:58 16,4 C 14,4 C 8,2 UV-I 6,9 C 49 % 55 % 100 % 1019,8 hPa 0,0 l/m 6,8 km/h (2 Bft) 2 min 13,7 km/h (3 Bft)
15.04.2010 13:00 16,4 C 14,5 C 8,0 UV-I 6,8 C 49 % 55 % 100 % 1019,8 hPa 0,0 l/m 7,2 km/h (2 Bft) 2 min 5,2 km/h (1 Bft)
15.04.2010 13:02 16,4 C 14,5 C 8,0 UV-I 6,8 C 49 % 54 % 100 % 1019,8 hPa 0,0 l/m 6,8 km/h (2 Bft) 2 min 10,0 km/h (2 Bft)
15.04.2010 13:04 16,4 C 14,5 C 8,0 UV-I 6,6 C 49 % 54 % 100 % 1019,8 hPa 0,0 l/m 7,6 km/h (2 Bft) 2 min 14,5 km/h (3 Bft)
15.04.2010 13:06 16,4 C 14,6 C 8,3 UV-I 6,4 C 49 % 54 % 100 % 1019,8 hPa 0,0 l/m 8,0 km/h (2 Bft) 2 min 5,6 km/h (1 Bft)
15.04.2010 13:08 16,5 C 14,7 C 8,3 UV-I 6,2 C 49 % 54 % 100 % 1019,8 hPa 0,0 l/m 8,0 km/h (2 Bft) 2 min 9,6 km/h (2 Bft)
15.04.2010 13:10 16,5 C 14,7 C 8,2 UV-I 6,4 C 49 % 53 % 100 % 1019,8 hPa 0,0 l/m 7,6 km/h (2 Bft) 2 min 12,4 km/h (3 Bft)
15.04.2010 13:12 16,5 C 14,8 C 8,2 UV-I 6,3 C 49 % 53 % 100 % 1019,7 hPa 0,0 l/m 8,8 km/h (2 Bft) 2 min 19,7 km/h (3 Bft)
15.04.2010 13:14 16,6 C 14,8 C 8,2 UV-I 6,1 C 49 % 53 % 100 % 1019,7 hPa 0,0 l/m 8,8 km/h (2 Bft) 2 min 9,2 km/h (2 Bft)
15.04.2010 13:16 16,6 C 14,9 C 8,4 UV-I 6,0 C 49 % 53 % 100 % 1019,7 hPa 0,0 l/m 8,4 km/h (2 Bft) 2 min 11,2 km/h (2 Bft)
15.04.2010 13:18 16,6 C 14,9 C 8,4 UV-I 6,0 C 49 % 53 % 100 % 1019,7 hPa 0,0 l/m 9,2 km/h (2 Bft) 2 min 9,2 km/h (2 Bft)
15.04.2010 13:20 16,7 C 15,1 C 8,3 UV-I 5,8 C 49 % 52 % 100 % 1019,7 hPa 0,0 l/m 10,8 km/h (2 Bft) 2 min 8,8 km/h (2 Bft)
15.04.2010 13:22 16,7 C 15,1 C 8,3 UV-I 5,6 C 49 % 52 % 100 % 1019,7 hPa 0,0 l/m 9,2 km/h (2 Bft) 2 min 0,0 km/h (0 Bft)
15.04.2010 13:24 16,8 C 15,2 C 8,3 UV-I 5,7 C 49 % 52 % 100 % 1019,7 hPa 0,0 l/m 8,0 km/h (2 Bft) 2 min 6,4 km/h (2 Bft)
15.04.2010 13:26 16,8 C 15,3 C 8,2 UV-I 5,9 C 49 % 52 % 100 % 1019,7 hPa 0,0 l/m 8,0 km/h (2 Bft) 2 min 9,2 km/h (2 Bft)
15.04.2010 13:28 16,8 C 15,5 C 8,2 UV-I 5,8 C 49 % 50 % 100 % 1019,7 hPa 0,0 l/m 9,2 km/h (2 Bft) 2 min 26,9 km/h (4 Bft)
15.04.2010 13:30 16,9 C 15,4 C 8,1 UV-I 5,6 C 49 % 50 % 100 % 1019,7 hPa 0,0 l/m 9,2 km/h (2 Bft) 2 min 26,9 km/h (4 Bft)
15.04.2010 13:32 17,0 C 15,5 C 8,1 UV-I 5,4 C 49 % 51 % 100 % 1019,8 hPa 0,0 l/m 8,0 km/h (2 Bft) 2 min 9,2 km/h (2 Bft)
15.04.2010 13:34 17,0 C 15,5 C 8,1 UV-I 5,6 C 49 % 50 % 100 % 1019,8 hPa 0,0 l/m 8,8 km/h (2 Bft) 2 min 10,8 km/h (2 Bft)
15.04.2010 13:36 17,0 C 15,6 C 8,7 UV-I 5,7 C 48 % 50 % 100 % 1019,8 hPa 0,0 l/m 8,8 km/h (2 Bft) 2 min 10,8 km/h (2 Bft)
15.04.2010 13:38 17,1 C 15,7 C 8,7 UV-I 5,9 C 48 % 50 % 100 % 1019,8 hPa 0,0 l/m 7,6 km/h (2 Bft) 2 min 4,8 km/h (1 Bft)
15.04.2010 13:42 17,2 C 15,9 C 8,9 UV-I 6,2 C 48 % 49 % 100 % 1019,8 hPa 0,0 l/m 6,8 km/h (2 Bft) 2 min 23,7 km/h (4 Bft)
15.04.2010 13:44 17,2 C 15,9 C 8,9 UV-I 6,1 C 48 % 49 % 100 % 1019,8 hPa 0,0 l/m 6,4 km/h (2 Bft) 2 min 10,0 km/h (2 Bft)
15.04.2010 13:46 17,2 C 16,0 C 7,9 UV-I 6,0 C 48 % 50 % 100 % 1019,8 hPa 0,0 l/m 6,4 km/h (2 Bft) 2 min 10,4 km/h (2 Bft)
15.04.2010 13:48 17,2 C 16,1 C 7,9 UV-I 6,0 C 48 % 49 % 100 % 1019,8 hPa 0,0 l/m 6,4 km/h (2 Bft) 2 min 9,6 km/h (2 Bft)
15.04.2010 13:50 17,4 C 16,1 C 6,3 UV-I 6,0 C 48 % 47 % 100 % 1019,8 hPa 0,0 l/m 8,8 km/h (2 Bft) 2 min 34,9 km/h (5 Bft)
15.04.2010 13:52 17,5 C 16,0 C 6,3 UV-I 5,7 C 48 % 47 % 100 % 1020,8 hPa 0,0 l/m 10,4 km/h (2 Bft) 2 min 4,4 km/h (1 Bft)
15.04.2010 13:54 17,5 C 16,1 C 6,3 UV-I 5,4 C 48 % 48 % 100 % 1020,8 hPa 0,0 l/m 9,6 km/h (2 Bft) 2 min 13,7 km/h (3 Bft)
15.04.2010 13:56 17,6 C 16,1 C 6,0 UV-I 5,3 C 48 % 47 % 100 % 1020,8 hPa 0,0 l/m 10,8 km/h (2 Bft) 2 min 12,0 km/h (2 Bft)
15.04.2010 14:00 17,7 C 16,2 C 5,8 UV-I 5,0 C 47 % 47 % 100 % 1020,8 hPa 0,0 l/m 10,4 km/h (2 Bft) 2 min 13,7 km/h (3 Bft)
15.04.2010 14:02 17,8 C 16,3 C 5,8 UV-I 5,1 C 47 % 47 % 100 % 1020,8 hPa 0,0 l/m 8,4 km/h (2 Bft) 2 min 7,6 km/h (2 Bft)
15.04.2010 14:04 17,8 C 16,5 C 5,8 UV-I 5,2 C 47 % 47 % 100 % 1020,8 hPa 0,0 l/m 8,4 km/h (2 Bft) 2 min 8,0 km/h (2 Bft)
15.04.2010 14:06 17,8 C 16,5 C 8,1 UV-I 5,5 C 47 % 46 % 100 % 1020,8 hPa 0,0 l/m 7,2 km/h (2 Bft) 2 min 7,6 km/h (2 Bft)
15.04.2010 14:08 17,9 C 16,7 C 8,1 UV-I 5,5 C 47 % 46 % 100 % 1020,8 hPa 0,0 l/m 6,8 km/h (2 Bft) 2 min 12,8 km/h (3 Bft)
15.04.2010 14:10 18,0 C 16,6 C 8,8 UV-I 5,7 C 47 % 46 % 100 % 1020,8 hPa 0,0 l/m 6,8 km/h (2 Bft) 2 min 5,6 km/h (1 Bft)
15.04.2010 14:12 18,0 C 16,7 C 8,8 UV-I 5,6 C 46 % 45 % 100 % 1022,2 hPa 0,0 l/m 7,6 km/h (2 Bft) 2 min 21,3 km/h (4 Bft)
15.04.2010 14:14 18,0 C 16,7 C 8,8 UV-I 5,5 C 46 % 44 % 100 % 1022,2 hPa 0,0 l/m 10,0 km/h (2 Bft) 2 min 28,1 km/h (4 Bft)
15.04.2010 14:16 18,1 C 16,7 C 8,5 UV-I 5,1 C 46 % 44 % 100 % 1022,2 hPa 0,0 l/m 10,8 km/h (2 Bft) 2 min 8,0 km/h (2 Bft)
15.04.2010 14:18 18,1 C 16,7 C 8,5 UV-I 4,9 C 46 % 45 % 100 % 1022,2 hPa 0,0 l/m 10,4 km/h (2 Bft) 2 min 7,6 km/h (2 Bft)
15.04.2010 14:20 18,2 C 16,9 C 8,5 UV-I 5,0 C 46 % 45 % 100 % 1022,2 hPa 0,0 l/m 9,6 km/h (2 Bft) 2 min 0,0 km/h (0 Bft)
15.04.2010 14:22 18,2 C 17,0 C 8,5 UV-I 5,2 C 45 % 44 % 100 % 1022,2 hPa 0,0 l/m 9,2 km/h (2 Bft) 2 min 4,8 km/h (1 Bft)
15.04.2010 14:26 18,2 C 17,2 C 9,0 UV-I 5,4 C 45 % 43 % 100 % 1022,2 hPa 0,0 l/m 5,6 km/h (1 Bft) 2 min 17,7 km/h (3 Bft)
15.04.2010 14:28 18,4 C 17,1 C 9,0 UV-I 5,5 C 45 % 43 % 100 % 1022,2 hPa 0,0 l/m 6,8 km/h (2 Bft) 2 min 10,8 km/h (2 Bft)
15.04.2010 14:30 18,4 C 17,1 C 8,5 UV-I 5,3 C 45 % 44 % 100 % 1022,2 hPa 0,0 l/m 6,4 km/h (2 Bft) 2 min 4,0 km/h (1 Bft)
15.04.2010 14:32 18,4 C 17,2 C 8,5 UV-I 5,4 C 44 % 44 % 100 % 1022,3 hPa 0,0 l/m 6,4 km/h (2 Bft) 2 min 10,4 km/h (2 Bft)
15.04.2010 14:34 18,5 C 17,2 C 8,5 UV-I 5,5 C 44 % 43 % 100 % 1022,3 hPa 0,0 l/m 6,8 km/h (2 Bft) 2 min 8,0 km/h (2 Bft)
15.04.2010 14:36 18,6 C 17,3 C 8,4 UV-I 5,6 C 44 % 43 % 100 % 1022,3 hPa 0,0 l/m 7,2 km/h (2 Bft) 2 min 9,2 km/h (2 Bft)
15.04.2010 14:38 18,6 C 17,4 C 8,4 UV-I 5,5 C 44 % 42 % 100 % 1022,3 hPa 0,0 l/m 6,8 km/h (2 Bft) 2 min 16,5 km/h (3 Bft)
15.04.2010 14:40 18,6 C 17,5 C 8,3 UV-I 5,4 C 44 % 42 % 100 % 1022,3 hPa 0,0 l/m 6,4 km/h (2 Bft) 2 min 4,4 km/h (1 Bft)
15.04.2010 14:42 18,7 C 17,7 C 8,3 UV-I 5,3 C 44 % 43 % 100 % 1022,3 hPa 0,0 l/m 6,8 km/h (2 Bft) 2 min 8,0 km/h (2 Bft)
15.04.2010 14:44 18,7 C 17,7 C 8,3 UV-I 5,6 C 44 % 43 % 100 % 1022,3 hPa 0,0 l/m 6,4 km/h (2 Bft) 2 min 6,8 km/h (2 Bft)
15.04.2010 14:46 18,8 C 17,7 C 8,4 UV-I 5,7 C 44 % 42 % 100 % 1022,3 hPa 0,0 l/m 5,6 km/h (1 Bft) 2 min 8,0 km/h (2 Bft)
15.04.2010 14:48 18,8 C 17,9 C 8,4 UV-I 5,7 C 43 % 42 % 100 % 1022,3 hPa 0,0 l/m 5,2 km/h (1 Bft) 2 min 6,4 km/h (2 Bft)
15.04.2010 14:50 18,8 C 18,0 C 9,1 UV-I 5,8 C 43 % 42 % 100 % 1022,3 hPa 0,0 l/m 4,4 km/h (1 Bft) 2 min 7,2 km/h (2 Bft)
15.04.2010 14:52 18,9 C 18,0 C 9,1 UV-I 5,9 C 43 % 41 % 100 % 1021,6 hPa 0,0 l/m 4,8 km/h (1 Bft) 2 min 6,8 km/h (2 Bft)
15.04.2010 14:54 18,9 C 18,0 C 9,1 UV-I 6,0 C 43 % 41 % 100 % 1021,6 hPa 0,0 l/m 5,2 km/h (1 Bft) 2 min 14,9 km/h (3 Bft)
15.04.2010 14:56 19,0 C 18,1 C 8,4 UV-I 5,7 C 43 % 40 % 100 % 1021,6 hPa 0,0 l/m 6,4 km/h (2 Bft) 2 min 18,5 km/h (3 Bft)
15.04.2010 14:58 19,0 C 18,0 C 8,4 UV-I 5,5 C 43 % 41 % 100 % 1021,6 hPa 0,0 l/m 7,2 km/h (2 Bft) 2 min 6,4 km/h (2 Bft)
15.04.2010 15:00 19,0 C 18,1 C 8,4 UV-I 5,3 C 43 % 41 % 100 % 1021,6 hPa 0,0 l/m 7,6 km/h (2 Bft) 2 min 7,6 km/h (2 Bft)
15.04.2010 15:04 19,1 C 18,1 C 8,4 UV-I 5,2 C 43 % 39 % 100 % 1021,6 hPa 0,0 l/m 9,2 km/h (2 Bft) 2 min 29,7 km/h (5 Bft)
15.04.2010 15:06 19,1 C 18,0 C 8,6 UV-I 4,9 C 43 % 40 % 100 % 1021,6 hPa 0,0 l/m 9,2 km/h (2 Bft) 2 min 12,0 km/h (2 Bft)
15.04.2010 15:08 19,1 C 18,1 C 8,6 UV-I 4,7 C 43 % 40 % 100 % 1021,6 hPa 0,0 l/m 8,4 km/h (2 Bft) 2 min 8,0 km/h (2 Bft)
15.04.2010 15:10 19,2 C 18,1 C 8,9 UV-I 4,8 C 43 % 40 % 100 % 1021,6 hPa 0,0 l/m 8,8 km/h (2 Bft) 2 min 11,6 km/h (2 Bft)
15.04.2010 15:14 19,2 C 18,0 C 8,9 UV-I 4,9 C 42 % 39 % 100 % 1021,5 hPa 0,0 l/m 9,6 km/h (2 Bft) 2 min 18,5 km/h (3 Bft)
15.04.2010 15:16 19,2 C 18,1 C 8,8 UV-I 4,6 C 42 % 39 % 100 % 1021,5 hPa 0,0 l/m 8,4 km/h (2 Bft) 2 min 12,8 km/h (3 Bft)
15.04.2010 15:18 19,2 C 18,1 C 8,8 UV-I 4,5 C 42 % 40 % 100 % 1021,5 hPa 0,0 l/m 8,4 km/h (2 Bft) 2 min 7,6 km/h (2 Bft)
15.04.2010 15:20 19,2 C 18,0 C 9,1 UV-I 4,6 C 42 % 40 % 100 % 1021,5 hPa 0,0 l/m 8,8 km/h (2 Bft) 2 min 10,0 km/h (2 Bft)
15.04.2010 15:22 19,2 C 18,0 C 9,1 UV-I 4,6 C 42 % 39 % 100 % 1021,5 hPa 0,0 l/m 9,6 km/h (2 Bft) 2 min 10,4 km/h (2 Bft)
15.04.2010 15:24 19,3 C 18,0 C 9,1 UV-I 4,6 C 42 % 39 % 100 % 1021,5 hPa 0,0 l/m 10,0 km/h (2 Bft) 2 min 13,7 km/h (3 Bft)
15.04.2010 15:26 19,2 C 18,1 C 8,7 UV-I 4,4 C 42 % 39 % 100 % 1021,5 hPa 0,0 l/m 8,8 km/h (2 Bft) 2 min 12,0 km/h (2 Bft)
15.04.2010 15:30 19,4 C 18,3 C 8,4 UV-I 4,4 C 42 % 39 % 100 % 1021,5 hPa 0,0 l/m 8,8 km/h (2 Bft) 2 min 14,1 km/h (3 Bft)
15.04.2010 15:32 19,4 C 18,2 C 8,4 UV-I 4,5 C 42 % 38 % 100 % 1021,1 hPa 0,0 l/m 9,6 km/h (2 Bft) 2 min 14,1 km/h (3 Bft)
15.04.2010 15:34 19,4 C 18,2 C 8,4 UV-I 4,3 C 42 % 39 % 100 % 1021,1 hPa 0,0 l/m 10,0 km/h (2 Bft) 2 min 22,1 km/h (4 Bft)
15.04.2010 15:36 19,4 C 18,1 C 8,2 UV-I 4,3 C 42 % 38 % 100 % 1021,1 hPa 0,0 l/m 10,8 km/h (2 Bft) 2 min 12,8 km/h (3 Bft)
15.04.2010 15:38 19,4 C 18,1 C 8,2 UV-I 4,1 C 42 % 39 % 100 % 1021,1 hPa 0,0 l/m 10,8 km/h (2 Bft) 2 min 12,0 km/h (2 Bft)
15.04.2010 15:40 19,4 C 18,1 C 8,3 UV-I 4,1 C 42 % 39 % 100 % 1021,1 hPa 0,0 l/m 10,8 km/h (2 Bft) 2 min 8,4 km/h (2 Bft)
15.04.2010 15:42 19,5 C 18,1 C 8,3 UV-I 4,1 C 42 % 38 % 100 % 1021,1 hPa 0,0 l/m 11,6 km/h (2 Bft) 2 min 10,4 km/h (2 Bft)
15.04.2010 15:44 19,5 C 18,1 C 8,3 UV-I 4,1 C 42 % 39 % 100 % 1021,1 hPa 0,0 l/m 10,4 km/h (2 Bft) 2 min 10,4 km/h (2 Bft)
15.04.2010 15:46 19,5 C 18,1 C 8,5 UV-I 4,2 C 42 % 38 % 100 % 1021,1 hPa 0,0 l/m 9,6 km/h (2 Bft) 2 min 6,8 km/h (2 Bft)
15.04.2010 15:48 19,5 C 18,3 C 8,5 UV-I 4,2 C 42 % 39 % 100 % 1021,1 hPa 0,0 l/m 8,4 km/h (2 Bft) 2 min 12,0 km/h (2 Bft)
15.04.2010 15:50 19,5 C 18,3 C 8,3 UV-I 4,2 C 42 % 38 % 100 % 1021,1 hPa 0,0 l/m 9,6 km/h (2 Bft) 2 min 13,3 km/h (3 Bft)
15.04.2010 15:52 19,5 C 18,3 C 8,3 UV-I 4,2 C 42 % 37 % 100 % 1020,8 hPa 0,0 l/m 9,2 km/h (2 Bft) 2 min 19,7 km/h (3 Bft)
15.04.2010 15:54 19,6 C 18,1 C 8,3 UV-I 4,2 C 42 % 37 % 100 % 1020,8 hPa 0,0 l/m 10,4 km/h (2 Bft) 2 min 25,7 km/h (4 Bft)
15.04.2010 15:56 19,5 C 18,0 C 8,2 UV-I 4,1 C 42 % 38 % 100 % 1020,8 hPa 0,0 l/m 10,8 km/h (2 Bft) 2 min 14,5 km/h (3 Bft)
15.04.2010 15:58 19,6 C 18,0 C 8,2 UV-I 4,0 C 42 % 38 % 100 % 1020,8 hPa 0,0 l/m 12,8 km/h (3 Bft) 2 min 16,9 km/h (3 Bft)
15.04.2010 16:00 19,6 C 18,0 C 7,9 UV-I 3,8 C 42 % 38 % 100 % 1020,8 hPa 0,0 l/m 12,4 km/h (3 Bft) 2 min 10,8 km/h (2 Bft)
15.04.2010 16:02 19,6 C 18,0 C 7,9 UV-I 3,7 C 42 % 38 % 100 % 1020,8 hPa 0,0 l/m 12,4 km/h (3 Bft) 2 min 10,8 km/h (2 Bft)
15.04.2010 16:04 19,6 C 18,0 C 7,9 UV-I 3,6 C 41 % 38 % 100 % 1020,8 hPa 0,0 l/m 13,3 km/h (3 Bft) 2 min 17,7 km/h (3 Bft)
15.04.2010 16:08 19,6 C 17,9 C 8,0 UV-I 3,5 C 41 % 37 % 100 % 1020,8 hPa 0,0 l/m 14,5 km/h (3 Bft) 2 min 19,3 km/h (3 Bft)
15.04.2010 16:10 19,6 C 17,8 C 7,9 UV-I 3,5 C 41 % 38 % 100 % 1020,8 hPa 0,0 l/m 13,7 km/h (3 Bft) 2 min 9,6 km/h (2 Bft)
15.04.2010 16:12 19,7 C 17,9 C 7,9 UV-I 3,5 C 41 % 38 % 100 % 1020,3 hPa 0,0 l/m 12,8 km/h (3 Bft) 2 min 5,2 km/h (1 Bft)
15.04.2010 16:14 19,6 C 17,9 C 7,9 UV-I 3,7 C 41 % 37 % 100 % 1020,3 hPa 0,0 l/m 12,8 km/h (3 Bft) 2 min 10,0 km/h (2 Bft)
15.04.2010 16:16 19,7 C 18,0 C 7,4 UV-I 3,6 C 41 % 38 % 100 % 1020,3 hPa 0,0 l/m 10,4 km/h (2 Bft) 2 min 10,0 km/h (2 Bft)
15.04.2010 16:18 19,7 C 18,0 C 7,4 UV-I 3,8 C 41 % 37 % 100 % 1020,3 hPa 0,0 l/m 10,8 km/h (2 Bft) 2 min 17,7 km/h (3 Bft)
15.04.2010 16:20 19,7 C 18,0 C 7,2 UV-I 3,7 C 41 % 38 % 100 % 1020,3 hPa 0,0 l/m 9,6 km/h (2 Bft) 2 min 5,2 km/h (1 Bft)
15.04.2010 16:22 19,8 C 18,0 C 7,2 UV-I 3,8 C 41 % 37 % 100 % 1020,3 hPa 0,0 l/m 10,8 km/h (2 Bft) 2 min 11,6 km/h (2 Bft)
15.04.2010 16:24 19,7 C 18,0 C 7,2 UV-I 3,8 C 41 % 37 % 100 % 1020,3 hPa 0,0 l/m 12,4 km/h (3 Bft) 2 min 21,3 km/h (4 Bft)
15.04.2010 16:28 19,8 C 17,9 C 7,1 UV-I 3,5 C 41 % 36 % 100 % 1020,3 hPa 0,0 l/m 13,3 km/h (3 Bft) 2 min 16,9 km/h (3 Bft)
15.04.2010 16:30 19,8 C 17,9 C 7,1 UV-I 3,5 C 41 % 37 % 100 % 1020,3 hPa 0,0 l/m 12,8 km/h (3 Bft) 2 min 14,1 km/h (3 Bft)
15.04.2010 16:32 19,8 C 17,9 C 7,1 UV-I 3,5 C 41 % 37 % 100 % 1020,1 hPa 0,0 l/m 12,8 km/h (3 Bft) 2 min 10,8 km/h (2 Bft)
15.04.2010 16:34 19,8 C 18,0 C 7,1 UV-I 3,6 C 41 % 37 % 100 % 1020,1 hPa 0,0 l/m 11,2 km/h (2 Bft) 2 min 10,0 km/h (2 Bft)
15.04.2010 16:36 19,8 C 17,9 C 6,6 UV-I 3,8 C 41 % 37 % 100 % 1020,1 hPa 0,0 l/m 10,8 km/h (2 Bft) 2 min 18,9 km/h (3 Bft)
15.04.2010 16:38 19,8 C 18,0 C 6,6 UV-I 3,7 C 41 % 37 % 100 % 1020,1 hPa 0,0 l/m 9,6 km/h (2 Bft) 2 min 5,2 km/h (1 Bft)
15.04.2010 16:40 19,8 C 18,0 C 5,1 UV-I 3,8 C 41 % 37 % 100 % 1020,1 hPa 0,0 l/m 8,8 km/h (2 Bft) 2 min 7,2 km/h (2 Bft)
15.04.2010 16:42 19,8 C 18,0 C 5,1 UV-I 3,7 C 41 % 37 % 100 % 1020,1 hPa 0,0 l/m 8,8 km/h (2 Bft) 2 min 15,3 km/h (3 Bft)
15.04.2010 16:44 19,8 C 18,0 C 5,1 UV-I 3,4 C 41 % 37 % 97 % 1020,1 hPa 0,0 l/m 8,4 km/h (2 Bft) 2 min 10,8 km/h (2 Bft)
15.04.2010 16:46 19,8 C 18,1 C 5,6 UV-I 3,5 C 41 % 38 % 100 % 1020,1 hPa 0,0 l/m 6,8 km/h (2 Bft) 2 min 6,4 km/h (2 Bft)
15.04.2010 16:50 19,8 C 18,2 C 5,2 UV-I 4,0 C 41 % 36 % 100 % 1020,1 hPa 0,0 l/m 6,8 km/h (2 Bft) 2 min 15,3 km/h (3 Bft)
15.04.2010 16:52 19,8 C 18,2 C 5,2 UV-I 4,1 C 41 % 36 % 100 % 1020,4 hPa 0,0 l/m 8,4 km/h (2 Bft) 2 min 24,1 km/h (4 Bft)
15.04.2010 16:54 19,9 C 18,1 C 5,2 UV-I 4,1 C 41 % 37 % 100 % 1020,4 hPa 0,0 l/m 8,4 km/h (2 Bft) 2 min 8,8 km/h (2 Bft)
15.04.2010 16:56 19,8 C 18,1 C 4,9 UV-I 4,1 C 40 % 36 % 100 % 1020,4 hPa 0,0 l/m 10,8 km/h (2 Bft) 2 min 19,7 km/h (3 Bft)
15.04.2010 16:58 19,9 C 18,0 C 4,9 UV-I 4,2 C 41 % 36 % 100 % 1020,4 hPa 0,0 l/m 12,0 km/h (2 Bft) 2 min 16,1 km/h (3 Bft)
15.04.2010 17:00 19,9 C 18,1 C 4,3 UV-I 4,0 C 40 % 36 % 100 % 1020,4 hPa 0,0 l/m 12,4 km/h (3 Bft) 2 min 22,5 km/h (4 Bft)
15.04.2010 17:02 19,9 C 18,0 C 4,3 UV-I 4,0 C 40 % 36 % 100 % 1020,4 hPa 0,0 l/m 12,4 km/h (3 Bft) 2 min 8,0 km/h (2 Bft)
15.04.2010 17:04 19,9 C 17,9 C 4,3 UV-I 4,0 C 40 % 36 % 100 % 1020,4 hPa 0,0 l/m 12,0 km/h (2 Bft) 2 min 15,3 km/h (3 Bft)
15.04.2010 17:06 20,0 C 18,0 C 4,3 UV-I 4,0 C 40 % 36 % 100 % 1020,4 hPa 0,0 l/m 12,0 km/h (2 Bft) 2 min 15,7 km/h (3 Bft)
15.04.2010 17:08 20,0 C 17,9 C 4,3 UV-I 4,0 C 40 % 36 % 100 % 1020,4 hPa 0,0 l/m 11,6 km/h (2 Bft) 2 min 12,0 km/h (2 Bft)
15.04.2010 17:10 20,0 C 17,9 C 3,1 UV-I 3,9 C 40 % 36 % 100 % 1020,4 hPa 0,0 l/m 11,6 km/h (2 Bft) 2 min 10,0 km/h (2 Bft)
15.04.2010 17:12 20,0 C 17,9 C 3,1 UV-I 3,8 C 40 % 36 % 100 % 1021,2 hPa 0,0 l/m 10,8 km/h (2 Bft) 2 min 12,0 km/h (2 Bft)
15.04.2010 17:14 20,0 C 17,9 C 3,1 UV-I 3,8 C 40 % 36 % 100 % 1021,2 hPa 0,0 l/m 10,4 km/h (2 Bft) 2 min 7,6 km/h (2 Bft)
15.04.2010 17:16 20,0 C 18,0 C 3,1 UV-I 3,8 C 40 % 36 % 100 % 1021,2 hPa 0,0 l/m 10,8 km/h (2 Bft) 2 min 10,0 km/h (2 Bft)
15.04.2010 17:18 20,0 C 18,1 C 3,1 UV-I 3,7 C 40 % 36 % 100 % 1021,2 hPa 0,0 l/m 10,4 km/h (2 Bft) 2 min 17,3 km/h (3 Bft)
15.04.2010 17:20 20,0 C 18,0 C 3,2 UV-I 3,8 C 40 % 36 % 100 % 1021,2 hPa 0,0 l/m 11,2 km/h (2 Bft) 2 min 36,9 km/h (5 Bft)
15.04.2010 17:22 20,0 C 17,9 C 3,2 UV-I 3,7 C 40 % 36 % 100 % 1021,2 hPa 0,0 l/m 12,8 km/h (3 Bft) 2 min 14,1 km/h (3 Bft)
15.04.2010 17:24 20,0 C 17,9 C 3,2 UV-I 3,4 C 40 % 35 % 97 % 1021,2 hPa 0,0 l/m 13,7 km/h (3 Bft) 2 min 16,5 km/h (3 Bft)
15.04.2010 17:26 20,0 C 17,8 C 2,6 UV-I 3,3 C 40 % 35 % 94 % 1021,2 hPa 0,0 l/m 13,7 km/h (3 Bft) 2 min 12,4 km/h (3 Bft)
15.04.2010 17:28 20,0 C 17,7 C 2,6 UV-I 3,3 C 40 % 36 % 94 % 1021,2 hPa 0,0 l/m 14,5 km/h (3 Bft) 2 min 18,5 km/h (3 Bft)
15.04.2010 17:30 20,0 C 17,7 C 1,7 UV-I 3,3 C 40 % 35 % 94 % 1021,2 hPa 0,0 l/m 14,5 km/h (3 Bft) 2 min 10,0 km/h (2 Bft)
15.04.2010 17:32 20,0 C 17,6 C 1,7 UV-I 3,3 C 40 % 36 % 94 % 1021,6 hPa 0,0 l/m 11,6 km/h (2 Bft) 2 min 9,2 km/h (2 Bft)
15.04.2010 17:34 19,9 C 17,7 C 1,7 UV-I 3,2 C 40 % 36 % 91 % 1021,6 hPa 0,0 l/m 11,6 km/h (2 Bft) 2 min 17,7 km/h (3 Bft)
15.04.2010 17:36 19,9 C 17,7 C 2,1 UV-I 3,1 C 40 % 36 % 89 % 1021,6 hPa 0,0 l/m 12,4 km/h (3 Bft) 2 min 16,1 km/h (3 Bft)
15.04.2010 17:38 19,9 C 17,5 C 2,1 UV-I 3,2 C 40 % 35 % 91 % 1021,6 hPa 0,0 l/m 12,8 km/h (3 Bft) 2 min 12,8 km/h (3 Bft)
15.04.2010 17:40 19,8 C 17,5 C 2,1 UV-I 3,1 C 40 % 36 % 89 % 1021,6 hPa 0,0 l/m 11,6 km/h (2 Bft) 2 min 14,5 km/h (3 Bft)
15.04.2010 17:42 19,8 C 17,5 C 2,1 UV-I 3,1 C 40 % 36 % 89 % 1021,6 hPa 0,0 l/m 12,0 km/h (2 Bft) 2 min 6,8 km/h (2 Bft)
15.04.2010 17:44 19,8 C 17,4 C 2,1 UV-I 3,2 C 40 % 35 % 91 % 1021,6 hPa 0,0 l/m 12,8 km/h (3 Bft) 2 min 15,7 km/h (3 Bft)
15.04.2010 17:46 19,8 C 17,4 C 1,3 UV-I 3,1 C 40 % 37 % 89 % 1021,6 hPa 0,0 l/m 11,6 km/h (2 Bft) 2 min 18,5 km/h (3 Bft)
15.04.2010 17:48 19,7 C 17,5 C 1,3 UV-I 3,0 C 40 % 37 % 86 % 1021,6 hPa 0,0 l/m 10,8 km/h (2 Bft) 2 min 8,4 km/h (2 Bft)
15.04.2010 17:50 19,6 C 17,4 C 1,6 UV-I 3,1 C 40 % 37 % 89 % 1021,6 hPa 0,0 l/m 10,8 km/h (2 Bft) 2 min 31,3 km/h (5 Bft)
15.04.2010 17:54 19,6 C 17,3 C 1,6 UV-I 3,1 C 40 % 37 % 89 % 1020,3 hPa 0,0 l/m 11,2 km/h (2 Bft) 2 min 14,1 km/h (3 Bft)
15.04.2010 17:58 19,6 C 17,3 C 1,6 UV-I 3,0 C 40 % 37 % 86 % 1020,3 hPa 0,0 l/m 10,8 km/h (2 Bft) 2 min 16,9 km/h (3 Bft)
15.04.2010 18:00 19,6 C 17,2 C 1,7 UV-I 3,0 C 40 % 37 % 86 % 1020,3 hPa 0,0 l/m 11,2 km/h (2 Bft) 2 min 12,0 km/h (2 Bft)
15.04.2010 18:02 19,6 C 17,1 C 1,7 UV-I 3,0 C 40 % 37 % 86 % 1020,3 hPa 0,0 l/m 11,2 km/h (2 Bft) 2 min 18,1 km/h (3 Bft)
15.04.2010 18:04 19,5 C 17,0 C 1,7 UV-I 2,8 C 40 % 37 % 80 % 1020,3 hPa 0,0 l/m 11,6 km/h (2 Bft) 0 min 14,9 km/h (3 Bft)
15.04.2010 18:06 19,5 C 17,0 C 1,0 UV-I 2,3 C 40 % 37 % 66 % 1020,3 hPa 0,0 l/m 11,2 km/h (2 Bft) 0 min 12,4 km/h (3 Bft)
15.04.2010 18:08 19,5 C 16,9 C 1,0 UV-I 2,1 C 40 % 36 % 60 % 1020,3 hPa 0,0 l/m 12,0 km/h (2 Bft) 0 min 11,2 km/h (2 Bft)
15.04.2010 18:10 19,5 C 16,9 C 1,5 UV-I 2,0 C 40 % 37 % 57 % 1020,3 hPa 0,0 l/m 12,4 km/h (3 Bft) 0 min 17,3 km/h (3 Bft)
15.04.2010 18:14 19,4 C 16,8 C 1,5 UV-I 1,8 C 40 % 37 % 51 % 1019,9 hPa 0,0 l/m 11,2 km/h (2 Bft) 0 min 20,9 km/h (4 Bft)
15.04.2010 18:16 19,4 C 16,7 C 0,6 UV-I 1,9 C 40 % 37 % 54 % 1019,9 hPa 0,0 l/m 11,2 km/h (2 Bft) 0 min 12,0 km/h (2 Bft)
15.04.2010 18:18 19,4 C 16,7 C 0,6 UV-I 1,9 C 40 % 37 % 54 % 1019,9 hPa 0,0 l/m 11,2 km/h (2 Bft) 0 min 18,5 km/h (3 Bft)
15.04.2010 18:20 19,4 C 16,7 C 0,8 UV-I 1,7 C 40 % 37 % 49 % 1019,9 hPa 0,0 l/m 12,0 km/h (2 Bft) 0 min 20,1 km/h (4 Bft)
15.04.2010 18:22 19,4 C 16,5 C 0,8 UV-I 1,7 C 40 % 38 % 49 % 1019,9 hPa 0,0 l/m 12,4 km/h (3 Bft) 0 min 14,9 km/h (3 Bft)
15.04.2010 18:24 19,2 C 16,4 C 0,8 UV-I 1,6 C 40 % 38 % 46 % 1019,9 hPa 0,0 l/m 13,7 km/h (3 Bft) 0 min 18,9 km/h (3 Bft)
15.04.2010 18:26 19,2 C 16,4 C 0,6 UV-I 1,4 C 40 % 38 % 40 % 1019,9 hPa 0,0 l/m 13,3 km/h (3 Bft) 0 min 8,4 km/h (2 Bft)
15.04.2010 18:30 19,2 C 16,4 C 0,7 UV-I 1,0 C 40 % 39 % 29 % 1019,9 hPa 0,0 l/m 11,2 km/h (2 Bft) 0 min 10,0 km/h (2 Bft)
15.04.2010 18:32 19,2 C 16,4 C 0,7 UV-I 0,9 C 40 % 39 % 26 % 1019,8 hPa 0,0 l/m 10,0 km/h (2 Bft) 0 min 9,2 km/h (2 Bft)
15.04.2010 18:36 19,2 C 16,3 C 0,8 UV-I 0,6 C 40 % 38 % 17 % 1019,8 hPa 0,0 l/m 9,6 km/h (2 Bft) 0 min 13,7 km/h (3 Bft)
15.04.2010 18:38 19,3 C 16,3 C 0,8 UV-I 0,4 C 40 % 39 % 11 % 1019,8 hPa 0,0 l/m 9,6 km/h (2 Bft) 0 min 17,7 km/h (3 Bft)
15.04.2010 18:40 19,2 C 16,2 C 0,8 UV-I 0,3 C 40 % 39 % 9 % 1019,8 hPa 0,0 l/m 9,6 km/h (2 Bft) 0 min 8,8 km/h (2 Bft)
15.04.2010 18:42 19,2 C 16,1 C 0,8 UV-I 0,4 C 40 % 39 % 11 % 1019,8 hPa 0,0 l/m 10,4 km/h (2 Bft) 0 min 17,3 km/h (3 Bft)
15.04.2010 18:44 19,2 C 16,0 C 0,8 UV-I 0,3 C 40 % 38 % 9 % 1019,8 hPa 0,0 l/m 10,4 km/h (2 Bft) 0 min 17,7 km/h (3 Bft)
15.04.2010 18:46 19,3 C 16,0 C 0,8 UV-I 0,1 C 41 % 38 % 3 % 1019,8 hPa 0,0 l/m 10,8 km/h (2 Bft) 0 min 6,8 km/h (2 Bft)
15.04.2010 18:48 19,2 C 16,0 C 0,8 UV-I 0,1 C 40 % 39 % 3 % 1019,8 hPa 0,0 l/m 11,2 km/h (2 Bft) 0 min 13,7 km/h (3 Bft)
15.04.2010 18:50 19,2 C 16,0 C 0,8 UV-I 0,0 C 40 % 39 % 0 % 1019,8 hPa 0,0 l/m 10,8 km/h (2 Bft) 0 min 19,3 km/h (3 Bft)
15.04.2010 18:52 19,3 C 15,9 C 0,8 UV-I 0,0 C 40 % 39 % 0 % 1020,1 hPa 0,0 l/m 11,6 km/h (2 Bft) 0 min 16,1 km/h (3 Bft)
15.04.2010 18:54 19,3 C 15,9 C 0,8 UV-I 0,0 C 40 % 39 % 0 % 1020,1 hPa 0,0 l/m 11,6 km/h (2 Bft) 0 min 11,2 km/h (2 Bft)
15.04.2010 18:56 19,2 C 15,8 C 0,4 UV-I 0,0 C 40 % 39 % 0 % 1020,1 hPa 0,0 l/m 10,8 km/h (2 Bft) 0 min 10,4 km/h (2 Bft)
15.04.2010 18:58 19,2 C 15,9 C 0,4 UV-I 0,0 C 40 % 38 % 0 % 1020,1 hPa 0,0 l/m 11,2 km/h (2 Bft) 0 min 20,5 km/h (4 Bft)
15.04.2010 19:00 19,3 C 15,7 C 0,5 UV-I 0,0 C 40 % 38 % 0 % 1020,1 hPa 0,0 l/m 12,0 km/h (2 Bft) 0 min 15,3 km/h (3 Bft)
15.04.2010 19:04 19,3 C 15,7 C 0,5 UV-I 0,0 C 40 % 38 % 0 % 1020,1 hPa 0,0 l/m 12,8 km/h (3 Bft) 0 min 18,1 km/h (3 Bft)
15.04.2010 19:08 19,3 C 15,6 C 0,4 UV-I 0,0 C 40 % 39 % 0 % 1020,1 hPa 0,0 l/m 12,4 km/h (3 Bft) 0 min 12,0 km/h (2 Bft)
15.04.2010 19:12 19,3 C 15,5 C 0,2 UV-I 0,0 C 40 % 39 % 0 % 1020,1 hPa 0,0 l/m 10,0 km/h (2 Bft) 0 min 11,2 km/h (2 Bft)
15.04.2010 19:14 19,3 C 15,5 C 0,2 UV-I 0,0 C 40 % 39 % 0 % 1020,1 hPa 0,0 l/m 9,2 km/h (2 Bft) 0 min 11,2 km/h (2 Bft)
15.04.2010 19:16 19,2 C 15,4 C 0,3 UV-I 0,0 C 40 % 39 % 0 % 1020,1 hPa 0,0 l/m 9,6 km/h (2 Bft) 0 min 14,5 km/h (3 Bft)
15.04.2010 19:18 19,3 C 15,5 C 0,3 UV-I 0,0 C 40 % 40 % 0 % 1020,1 hPa 0,0 l/m 10,0 km/h (2 Bft) 0 min 8,0 km/h (2 Bft)
15.04.2010 19:20 19,3 C 15,5 C 0,3 UV-I 0,0 C 40 % 40 % 0 % 1020,1 hPa 0,0 l/m 10,0 km/h (2 Bft) 0 min 15,7 km/h (3 Bft)
15.04.2010 19:22 19,2 C 15,3 C 0,3 UV-I 0,0 C 40 % 40 % 0 % 1020,1 hPa 0,0 l/m 10,4 km/h (2 Bft) 0 min 10,8 km/h (2 Bft)
15.04.2010 19:24 19,2 C 15,3 C 0,3 UV-I 0,0 C 40 % 40 % 0 % 1020,1 hPa 0,0 l/m 10,0 km/h (2 Bft) 0 min 14,1 km/h (3 Bft)
15.04.2010 19:26 19,2 C 15,2 C 0,0 UV-I 0,0 C 40 % 40 % 0 % 1020,1 hPa 0,0 l/m 10,0 km/h (2 Bft) 0 min 10,4 km/h (2 Bft)
15.04.2010 19:28 19,2 C 15,2 C 0,0 UV-I 0,0 C 40 % 40 % 0 % 1020,1 hPa 0,0 l/m 9,6 km/h (2 Bft) 0 min 9,2 km/h (2 Bft)
15.04.2010 19:30 19,2 C 15,2 C 0,0 UV-I 0,0 C 40 % 40 % 0 % 1020,1 hPa 0,0 l/m 8,8 km/h (2 Bft) 0 min 9,6 km/h (2 Bft)
15.04.2010 19:32 19,2 C 15,3 C 0,0 UV-I 0,0 C 40 % 40 % 0 % 1019,6 hPa 0,0 l/m 8,4 km/h (2 Bft) 0 min 10,4 km/h (2 Bft)
15.04.2010 19:34 19,2 C 15,1 C 0,0 UV-I 0,1 C 40 % 41 % 3 % 1019,6 hPa 0,0 l/m 8,0 km/h (2 Bft) 0 min 9,2 km/h (2 Bft)
15.04.2010 19:36 19,2 C 15,1 C 0,0 UV-I 0,1 C 40 % 41 % 3 % 1019,6 hPa 0,0 l/m 6,8 km/h (2 Bft) 0 min 6,4 km/h (2 Bft)
15.04.2010 19:38 19,2 C 15,1 C 0,0 UV-I 0,1 C 40 % 41 % 3 % 1019,6 hPa 0,0 l/m 7,2 km/h (2 Bft) 0 min 9,6 km/h (2 Bft)
15.04.2010 19:40 19,1 C 15,0 C 0,0 UV-I 0,2 C 40 % 41 % 6 % 1019,6 hPa 0,0 l/m 7,6 km/h (2 Bft) 0 min 14,5 km/h (3 Bft)
15.04.2010 19:42 19,1 C 14,9 C 0,0 UV-I 0,2 C 40 % 41 % 6 % 1019,6 hPa 0,0 l/m 8,4 km/h (2 Bft) 0 min 11,2 km/h (2 Bft)
15.04.2010 19:44 19,1 C 14,8 C 0,0 UV-I 0,1 C 40 % 41 % 3 % 1019,6 hPa 0,0 l/m 9,2 km/h (2 Bft) 0 min 11,6 km/h (2 Bft)
15.04.2010 19:46 19,1 C 14,8 C 0,0 UV-I 0,0 C 40 % 41 % 0 % 1019,6 hPa 0,0 l/m 9,6 km/h (2 Bft) 0 min 11,2 km/h (2 Bft)
15.04.2010 19:48 19,1 C 14,7 C 0,0 UV-I 0,0 C 40 % 41 % 0 % 1019,6 hPa 0,0 l/m 10,4 km/h (2 Bft) 0 min 10,0 km/h (2 Bft)
15.04.2010 19:52 19,1 C 14,7 C 0,0 UV-I 0,0 C 40 % 42 % 0 % 1019,5 hPa 0,0 l/m 9,6 km/h (2 Bft) 0 min 16,5 km/h (3 Bft)
15.04.2010 19:54 19,0 C 14,7 C 0,0 UV-I 0,0 C 40 % 42 % 0 % 1019,5 hPa 0,0 l/m 9,2 km/h (2 Bft) 0 min 8,8 km/h (2 Bft)
15.04.2010 19:56 19,0 C 14,7 C 0,0 UV-I 0,0 C 40 % 42 % 0 % 1019,5 hPa 0,0 l/m 9,2 km/h (2 Bft) 0 min 6,4 km/h (2 Bft)
15.04.2010 20:00 19,0 C 14,5 C 0,0 UV-I 0,0 C 40 % 42 % 0 % 1019,5 hPa 0,0 l/m 8,8 km/h (2 Bft) 0 min 12,0 km/h (2 Bft)
15.04.2010 20:03 18,9 C 14,4 C 0,0 UV-I 0,0 C 40 % 42 % 0 % 1019,5 hPa 0,0 l/m 8,4 km/h (2 Bft) 0 min 6,8 km/h (2 Bft)
15.04.2010 20:08 18,8 C 14,2 C 0,0 UV-I 0,0 C 40 % 43 % 0 % 1019,5 hPa 0,0 l/m 8,0 km/h (2 Bft) 0 min 8,0 km/h (2 Bft)
15.04.2010 20:10 18,8 C 14,2 C 0,0 UV-I 0,0 C 40 % 43 % 0 % 1019,5 hPa 0,0 l/m 8,0 km/h (2 Bft) 0 min 8,0 km/h (2 Bft)
15.04.2010 20:12 18,8 C 14,3 C 0,0 UV-I 0,0 C 40 % 43 % 0 % 1019,3 hPa 0,0 l/m 7,2 km/h (2 Bft) 0 min 7,2 km/h (2 Bft)
15.04.2010 20:14 18,8 C 14,1 C 0,0 UV-I 0,0 C 40 % 43 % 0 % 1019,3 hPa 0,0 l/m 6,8 km/h (2 Bft) 0 min 4,8 km/h (1 Bft)
15.04.2010 20:16 18,8 C 14,0 C 0,0 UV-I 0,0 C 40 % 43 % 0 % 1019,3 hPa 0,0 l/m 6,4 km/h (2 Bft) 0 min 9,2 km/h (2 Bft)
15.04.2010 20:18 18,8 C 14,1 C 0,0 UV-I 0,0 C 40 % 43 % 0 % 1019,3 hPa 0,0 l/m 6,4 km/h (2 Bft) 0 min 8,0 km/h (2 Bft)
15.04.2010 20:20 18,7 C 14,0 C 0,0 UV-I 0,0 C 40 % 43 % 0 % 1019,3 hPa 0,0 l/m 6,0 km/h (2 Bft) 0 min 8,0 km/h (2 Bft)
15.04.2010 20:22 18,7 C 13,9 C 0,0 UV-I 0,0 C 41 % 43 % 0 % 1019,3 hPa 0,0 l/m 6,4 km/h (2 Bft) 0 min 6,4 km/h (2 Bft)
15.04.2010 20:24 18,7 C 13,8 C 0,0 UV-I 0,0 C 40 % 44 % 0 % 1019,3 hPa 0,0 l/m 6,8 km/h (2 Bft) 0 min 8,4 km/h (2 Bft)
15.04.2010 20:26 18,6 C 13,7 C 0,0 UV-I 0,0 C 41 % 44 % 0 % 1019,3 hPa 0,0 l/m 7,2 km/h (2 Bft) 0 min 8,4 km/h (2 Bft)
15.04.2010 20:28 18,6 C 13,7 C 0,0 UV-I 0,0 C 41 % 44 % 0 % 1019,3 hPa 0,0 l/m 6,8 km/h (2 Bft) 0 min 4,8 km/h (1 Bft)
15.04.2010 20:30 18,6 C 13,6 C 0,0 UV-I 0,0 C 41 % 45 % 0 % 1019,3 hPa 0,0 l/m 6,4 km/h (2 Bft) 0 min 6,0 km/h (2 Bft)
15.04.2010 20:32 18,6 C 13,7 C 0,0 UV-I 0,0 C 41 % 45 % 0 % 1019,6 hPa 0,0 l/m 5,6 km/h (1 Bft) 0 min 4,0 km/h (1 Bft)
15.04.2010 20:34 18,6 C 13,6 C 0,0 UV-I 0,0 C 41 % 45 % 0 % 1019,6 hPa 0,0 l/m 4,0 km/h (1 Bft) 0 min 0,0 km/h (0 Bft)
15.04.2010 20:36 18,5 C 13,5 C 0,0 UV-I 0,0 C 41 % 46 % 0 % 1019,6 hPa 0,0 l/m 3,6 km/h (1 Bft) 0 min 5,6 km/h (1 Bft)
15.04.2010 20:38 18,5 C 13,5 C 0,0 UV-I 0,0 C 41 % 46 % 0 % 1019,6 hPa 0,0 l/m 3,2 km/h (1 Bft) 0 min 5,6 km/h (1 Bft)
15.04.2010 20:40 18,5 C 13,3 C 0,0 UV-I 0,0 C 41 % 47 % 0 % 1019,6 hPa 0,0 l/m 3,2 km/h (1 Bft) 0 min 6,8 km/h (2 Bft)
15.04.2010 20:42 18,4 C 13,3 C 0,0 UV-I 0,0 C 41 % 47 % 0 % 1019,6 hPa 0,0 l/m 4,0 km/h (1 Bft) 0 min 9,6 km/h (2 Bft)
15.04.2010 20:44 18,4 C 13,2 C 0,0 UV-I 0,0 C 41 % 47 % 0 % 1019,6 hPa 0,0 l/m 5,2 km/h (1 Bft) 0 min 10,8 km/h (2 Bft)
15.04.2010 20:46 18,4 C 13,2 C 0,0 UV-I 0,0 C 41 % 48 % 0 % 1019,6 hPa 0,0 l/m 6,4 km/h (2 Bft) 0 min 8,8 km/h (2 Bft)
15.04.2010 20:48 18,4 C 13,1 C 0,0 UV-I 0,0 C 41 % 48 % 0 % 1019,6 hPa 0,0 l/m 6,8 km/h (2 Bft) 0 min 11,2 km/h (2 Bft)
15.04.2010 20:50 18,4 C 13,1 C 0,0 UV-I 0,0 C 41 % 48 % 0 % 1019,6 hPa 0,0 l/m 6,8 km/h (2 Bft) 0 min 6,4 km/h (2 Bft)
15.04.2010 20:52 18,2 C 13,1 C 0,0 UV-I 0,0 C 41 % 48 % 0 % 1019,9 hPa 0,0 l/m 7,2 km/h (2 Bft) 0 min 7,2 km/h (2 Bft)
15.04.2010 20:54 18,4 C 12,9 C 0,0 UV-I 0,0 C 41 % 49 % 0 % 1019,9 hPa 0,0 l/m 6,8 km/h (2 Bft) 0 min 5,6 km/h (1 Bft)
15.04.2010 20:56 18,2 C 12,9 C 0,0 UV-I 0,0 C 41 % 49 % 0 % 1019,9 hPa 0,0 l/m 6,4 km/h (2 Bft) 0 min 7,2 km/h (2 Bft)
15.04.2010 20:58 18,3 C 12,8 C 0,0 UV-I 0,0 C 41 % 49 % 0 % 1019,9 hPa 0,0 l/m 6,0 km/h (2 Bft) 0 min 10,8 km/h (2 Bft)
15.04.2010 21:00 18,3 C 12,9 C 0,0 UV-I 0,0 C 41 % 49 % 0 % 1019,9 hPa 0,0 l/m 6,0 km/h (2 Bft) 0 min 10,8 km/h (2 Bft)
15.04.2010 21:02 18,2 C 12,8 C 0,0 UV-I 0,0 C 42 % 49 % 0 % 1019,9 hPa 0,0 l/m 6,0 km/h (2 Bft) 0 min 8,4 km/h (2 Bft)
15.04.2010 21:04 18,2 C 12,7 C 0,0 UV-I 0,0 C 42 % 49 % 0 % 1019,9 hPa 0,0 l/m 6,0 km/h (2 Bft) 0 min 6,4 km/h (2 Bft)
15.04.2010 21:06 18,2 C 12,6 C 0,0 UV-I 0,0 C 42 % 49 % 0 % 1019,9 hPa 0,0 l/m 6,4 km/h (2 Bft) 0 min 6,4 km/h (2 Bft)
15.04.2010 21:08 18,2 C 12,7 C 0,0 UV-I 0,0 C 42 % 49 % 0 % 1019,9 hPa 0,0 l/m 6,0 km/h (2 Bft) 0 min 5,2 km/h (1 Bft)
15.04.2010 21:10 18,2 C 12,6 C 0,0 UV-I 0,0 C 42 % 49 % 0 % 1019,9 hPa 0,0 l/m 6,0 km/h (2 Bft) 0 min 6,4 km/h (2 Bft)
15.04.2010 21:12 18,1 C 12,5 C 0,0 UV-I 0,0 C 42 % 50 % 0 % 1019,8 hPa 0,0 l/m 5,2 km/h (1 Bft) 0 min 6,4 km/h (2 Bft)
15.04.2010 21:14 18,1 C 12,5 C 0,0 UV-I 0,0 C 42 % 50 % 0 % 1019,8 hPa 0,0 l/m 4,8 km/h (1 Bft) 0 min 5,6 km/h (1 Bft)
15.04.2010 21:16 18,1 C 12,4 C 0,0 UV-I 0,0 C 42 % 50 % 0 % 1019,8 hPa 0,0 l/m 4,4 km/h (1 Bft) 0 min 5,2 km/h (1 Bft)
15.04.2010 21:18 18,1 C 12,4 C 0,0 UV-I 0,0 C 42 % 50 % 0 % 1019,8 hPa 0,0 l/m 4,0 km/h (1 Bft) 0 min 0,0 km/h (0 Bft)
15.04.2010 21:20 18,1 C 12,3 C 0,0 UV-I 0,0 C 42 % 50 % 0 % 1019,8 hPa 0,0 l/m 3,6 km/h (1 Bft) 0 min 6,0 km/h (2 Bft)
15.04.2010 21:22 18,0 C 12,2 C 0,0 UV-I 0,0 C 42 % 51 % 0 % 1019,8 hPa 0,0 l/m 3,2 km/h (1 Bft) 0 min 4,4 km/h (1 Bft)
15.04.2010 21:24 18,1 C 12,3 C 0,0 UV-I 0,0 C 42 % 51 % 0 % 1019,8 hPa 0,0 l/m 3,6 km/h (1 Bft) 0 min 4,8 km/h (1 Bft)
15.04.2010 21:26 18,0 C 12,1 C 0,0 UV-I 0,0 C 42 % 51 % 0 % 1019,8 hPa 0,0 l/m 3,6 km/h (1 Bft) 0 min 4,8 km/h (1 Bft)
15.04.2010 21:28 18,0 C 12,1 C 0,0 UV-I 0,0 C 42 % 51 % 0 % 1019,8 hPa 0,0 l/m 3,6 km/h (1 Bft) 0 min 4,0 km/h (1 Bft)
15.04.2010 21:30 18,0 C 12,0 C 0,0 UV-I 0,0 C 42 % 51 % 0 % 1019,8 hPa 0,0 l/m 3,2 km/h (1 Bft) 0 min 0,0 km/h (0 Bft)
15.04.2010 21:32 18,0 C 12,1 C 0,0 UV-I 0,0 C 42 % 51 % 0 % 1020,3 hPa 0,0 l/m 4,0 km/h (1 Bft) 0 min 8,8 km/h (2 Bft)
15.04.2010 21:34 18,0 C 11,9 C 0,0 UV-I 0,0 C 42 % 51 % 0 % 1020,3 hPa 0,0 l/m 4,0 km/h (1 Bft) 0 min 9,6 km/h (2 Bft)
15.04.2010 21:36 18,0 C 11,9 C 0,0 UV-I 0,0 C 42 % 52 % 0 % 1020,3 hPa 0,0 l/m 4,4 km/h (1 Bft) 0 min 7,6 km/h (2 Bft)
15.04.2010 21:38 18,0 C 11,8 C 0,0 UV-I 0,0 C 42 % 52 % 0 % 1020,3 hPa 0,0 l/m 4,8 km/h (1 Bft) 0 min 12,4 km/h (3 Bft)
15.04.2010 21:40 18,0 C 11,9 C 0,0 UV-I 0,0 C 42 % 52 % 0 % 1020,3 hPa 0,0 l/m 5,6 km/h (1 Bft) 0 min 7,6 km/h (2 Bft)
15.04.2010 21:42 17,9 C 11,8 C 0,0 UV-I 0,0 C 42 % 52 % 0 % 1020,3 hPa 0,0 l/m 6,4 km/h (2 Bft) 0 min 8,8 km/h (2 Bft)
15.04.2010 21:44 17,9 C 11,7 C 0,0 UV-I 0,0 C 42 % 52 % 0 % 1020,3 hPa 0,0 l/m 6,8 km/h (2 Bft) 0 min 8,8 km/h (2 Bft)
15.04.2010 21:46 17,9 C 11,7 C 0,0 UV-I 0,0 C 42 % 52 % 0 % 1020,3 hPa 0,0 l/m 8,0 km/h (2 Bft) 0 min 11,2 km/h (2 Bft)
15.04.2010 21:48 17,9 C 11,6 C 0,0 UV-I 0,0 C 42 % 52 % 0 % 1020,3 hPa 0,0 l/m 8,8 km/h (2 Bft) 0 min 12,4 km/h (3 Bft)
15.04.2010 21:50 17,8 C 11,6 C 0,0 UV-I 0,0 C 42 % 52 % 0 % 1020,3 hPa 0,0 l/m 9,6 km/h (2 Bft) 0 min 18,5 km/h (3 Bft)
15.04.2010 21:52 17,8 C 11,7 C 0,0 UV-I 0,0 C 42 % 52 % 0 % 1020,5 hPa 0,0 l/m 10,4 km/h (2 Bft) 0 min 9,2 km/h (2 Bft)
15.04.2010 21:54 17,8 C 11,6 C 0,0 UV-I 0,0 C 43 % 52 % 0 % 1020,5 hPa 0,0 l/m 10,4 km/h (2 Bft) 0 min 13,7 km/h (3 Bft)
15.04.2010 21:56 17,8 C 11,5 C 0,0 UV-I 0,0 C 43 % 52 % 0 % 1020,5 hPa 0,0 l/m 10,0 km/h (2 Bft) 0 min 10,0 km/h (2 Bft)
15.04.2010 21:58 17,8 C 11,5 C 0,0 UV-I 0,0 C 43 % 52 % 0 % 1020,5 hPa 0,0 l/m 9,6 km/h (2 Bft) 0 min 8,0 km/h (2 Bft)
15.04.2010 22:00 17,8 C 11,4 C 0,0 UV-I 0,0 C 43 % 52 % 0 % 1020,5 hPa 0,0 l/m 8,8 km/h (2 Bft) 0 min 7,6 km/h (2 Bft)
15.04.2010 22:02 17,8 C 11,5 C 0,0 UV-I 0,0 C 43 % 52 % 0 % 1020,5 hPa 0,0 l/m 7,2 km/h (2 Bft) 0 min 8,4 km/h (2 Bft)
15.04.2010 22:04 17,8 C 11,4 C 0,0 UV-I 0,0 C 43 % 52 % 0 % 1020,5 hPa 0,0 l/m 7,2 km/h (2 Bft) 0 min 10,8 km/h (2 Bft)
15.04.2010 22:06 17,7 C 11,3 C 0,0 UV-I 0,0 C 43 % 52 % 0 % 1020,5 hPa 0,0 l/m 7,6 km/h (2 Bft) 0 min 9,6 km/h (2 Bft)
15.04.2010 22:08 17,7 C 11,3 C 0,0 UV-I 0,0 C 43 % 52 % 0 % 1020,5 hPa 0,0 l/m 7,6 km/h (2 Bft) 0 min 12,4 km/h (3 Bft)
15.04.2010 22:10 17,7 C 11,2 C 0,0 UV-I 0,0 C 43 % 52 % 0 % 1020,5 hPa 0,0 l/m 8,0 km/h (2 Bft) 0 min 10,8 km/h (2 Bft)
15.04.2010 22:12 17,7 C 11,2 C 0,0 UV-I 0,0 C 43 % 51 % 0 % 1020,9 hPa 0,0 l/m 8,8 km/h (2 Bft) 0 min 6,0 km/h (2 Bft)
15.04.2010 22:14 17,7 C 11,2 C 0,0 UV-I 0,0 C 43 % 52 % 0 % 1020,9 hPa 0,0 l/m 8,8 km/h (2 Bft) 0 min 9,2 km/h (2 Bft)
15.04.2010 22:16 17,6 C 11,2 C 0,0 UV-I 0,0 C 43 % 52 % 0 % 1020,9 hPa 0,0 l/m 8,4 km/h (2 Bft) 0 min 12,4 km/h (3 Bft)
15.04.2010 22:18 17,6 C 11,1 C 0,0 UV-I 0,0 C 43 % 51 % 0 % 1020,9 hPa 0,0 l/m 8,8 km/h (2 Bft) 0 min 14,5 km/h (3 Bft)
15.04.2010 22:20 17,6 C 11,1 C 0,0 UV-I 0,0 C 43 % 51 % 0 % 1020,9 hPa 0,0 l/m 8,8 km/h (2 Bft) 0 min 16,1 km/h (3 Bft)
15.04.2010 22:22 17,6 C 11,1 C 0,0 UV-I 0,0 C 43 % 51 % 0 % 1020,9 hPa 0,0 l/m 8,8 km/h (2 Bft) 0 min 12,0 km/h (2 Bft)
15.04.2010 22:24 17,6 C 11,0 C 0,0 UV-I 0,0 C 43 % 51 % 0 % 1020,9 hPa 0,0 l/m 8,8 km/h (2 Bft) 0 min 13,7 km/h (3 Bft)
15.04.2010 22:26 17,6 C 11,1 C 0,0 UV-I 0,0 C 43 % 52 % 0 % 1020,9 hPa 0,0 l/m 8,4 km/h (2 Bft) 0 min 6,4 km/h (2 Bft)
15.04.2010 22:28 17,6 C 11,0 C 0,0 UV-I 0,0 C 43 % 52 % 0 % 1020,9 hPa 0,0 l/m 7,6 km/h (2 Bft) 0 min 5,6 km/h (1 Bft)
15.04.2010 22:30 17,6 C 10,9 C 0,0 UV-I 0,0 C 43 % 52 % 0 % 1020,9 hPa 0,0 l/m 6,4 km/h (2 Bft) 0 min 5,2 km/h (1 Bft)
15.04.2010 22:32 17,6 C 10,9 C 0,0 UV-I 0,0 C 43 % 52 % 0 % 1020,8 hPa 0,0 l/m 5,6 km/h (1 Bft) 0 min 8,0 km/h (2 Bft)
15.04.2010 22:34 17,5 C 10,8 C 0,0 UV-I 0,0 C 43 % 52 % 0 % 1020,8 hPa 0,0 l/m 5,6 km/h (1 Bft) 0 min 8,8 km/h (2 Bft)
15.04.2010 22:36 17,5 C 10,8 C 0,0 UV-I 0,0 C 43 % 52 % 0 % 1020,8 hPa 0,0 l/m 5,2 km/h (1 Bft) 0 min 9,2 km/h (2 Bft)
15.04.2010 22:38 17,5 C 10,7 C 0,0 UV-I 0,0 C 43 % 53 % 0 % 1020,8 hPa 0,0 l/m 5,2 km/h (1 Bft) 0 min 6,0 km/h (2 Bft)
15.04.2010 22:40 17,5 C 10,7 C 0,0 UV-I 0,0 C 43 % 53 % 0 % 1020,8 hPa 0,0 l/m 5,2 km/h (1 Bft) 0 min 5,6 km/h (1 Bft)
15.04.2010 22:42 17,5 C 10,6 C 0,0 UV-I 0,0 C 43 % 53 % 0 % 1020,8 hPa 0,0 l/m 5,6 km/h (1 Bft) 0 min 7,6 km/h (2 Bft)
15.04.2010 22:44 17,4 C 10,7 C 0,0 UV-I 0,0 C 43 % 53 % 0 % 1020,8 hPa 0,0 l/m 5,2 km/h (1 Bft) 0 min 4,4 km/h (1 Bft)
15.04.2010 22:46 17,4 C 10,6 C 0,0 UV-I 0,0 C 43 % 53 % 0 % 1020,8 hPa 0,0 l/m 4,8 km/h (1 Bft) 0 min 6,4 km/h (2 Bft)
15.04.2010 22:48 17,4 C 10,5 C 0,0 UV-I 0,0 C 43 % 54 % 0 % 1020,8 hPa 0,0 l/m 4,4 km/h (1 Bft) 0 min 7,2 km/h (2 Bft)
15.04.2010 22:50 17,4 C 10,4 C 0,0 UV-I 0,0 C 43 % 54 % 0 % 1020,8 hPa 0,0 l/m 4,8 km/h (1 Bft) 0 min 7,2 km/h (2 Bft)
15.04.2010 22:52 17,4 C 10,5 C 0,0 UV-I 0,0 C 43 % 54 % 0 % 1020,9 hPa 0,0 l/m 4,8 km/h (1 Bft) 0 min 4,0 km/h (1 Bft)
15.04.2010 22:54 17,4 C 10,4 C 0,0 UV-I 0,0 C 43 % 54 % 0 % 1020,9 hPa 0,0 l/m 4,8 km/h (1 Bft) 0 min 6,8 km/h (2 Bft)
15.04.2010 22:58 17,4 C 10,3 C 0,0 UV-I 0,0 C 43 % 54 % 0 % 1020,9 hPa 0,0 l/m 4,8 km/h (1 Bft) 0 min 8,0 km/h (2 Bft)
15.04.2010 23:00 17,4 C 10,3 C 0,0 UV-I 0,0 C 44 % 54 % 0 % 1020,9 hPa 0,0 l/m 4,4 km/h (1 Bft) 0 min 0,0 km/h (0 Bft)
15.04.2010 23:02 17,2 C 10,3 C 0,0 UV-I 0,0 C 44 % 55 % 0 % 1020,9 hPa 0,0 l/m 3,6 km/h (1 Bft) 0 min 7,2 km/h (2 Bft)
15.04.2010 23:04 17,2 C 10,1 C 0,0 UV-I 0,0 C 44 % 55 % 0 % 1020,9 hPa 0,0 l/m 3,6 km/h (1 Bft) 0 min 6,4 km/h (2 Bft)
15.04.2010 23:06 17,2 C 10,0 C 0,0 UV-I 0,0 C 44 % 55 % 0 % 1020,9 hPa 0,0 l/m 3,6 km/h (1 Bft) 0 min 5,2 km/h (1 Bft)
15.04.2010 23:08 17,2 C 10,0 C 0,0 UV-I 0,0 C 44 % 56 % 0 % 1020,9 hPa 0,0 l/m 3,2 km/h (1 Bft) 0 min 4,0 km/h (1 Bft)
15.04.2010 23:10 17,2 C 10,0 C 0,0 UV-I 0,0 C 44 % 56 % 0 % 1020,9 hPa 0,0 l/m 3,6 km/h (1 Bft) 0 min 0,0 km/h (0 Bft)
15.04.2010 23:12 17,3 C 10,0 C 0,0 UV-I 0,0 C 44 % 56 % 0 % 1020,9 hPa 0,0 l/m 4,0 km/h (1 Bft) 0 min 8,4 km/h (2 Bft)
15.04.2010 23:14 17,3 C 9,9 C 0,0 UV-I 0,0 C 44 % 57 % 0 % 1020,9 hPa 0,0 l/m 4,0 km/h (1 Bft) 0 min 7,6 km/h (2 Bft)
15.04.2010 23:16 17,3 C 9,8 C 0,0 UV-I 0,0 C 44 % 57 % 0 % 1020,9 hPa 0,0 l/m 4,4 km/h (1 Bft) 0 min 8,0 km/h (2 Bft)
15.04.2010 23:18 17,3 C 9,9 C 0,0 UV-I 0,0 C 44 % 57 % 0 % 1020,9 hPa 0,0 l/m 4,8 km/h (1 Bft) 0 min 8,4 km/h (2 Bft)
15.04.2010 23:20 17,2 C 9,7 C 0,0 UV-I 0,0 C 44 % 58 % 0 % 1020,9 hPa 0,0 l/m 5,2 km/h (1 Bft) 0 min 8,4 km/h (2 Bft)
15.04.2010 23:22 17,2 C 9,7 C 0,0 UV-I 0,0 C 44 % 58 % 0 % 1020,9 hPa 0,0 l/m 5,6 km/h (1 Bft) 0 min 6,8 km/h (2 Bft)
15.04.2010 23:24 17,2 C 9,6 C 0,0 UV-I 0,0 C 44 % 58 % 0 % 1020,9 hPa 0,0 l/m 5,2 km/h (1 Bft) 0 min 5,2 km/h (1 Bft)
15.04.2010 23:26 17,2 C 9,7 C 0,0 UV-I 0,0 C 44 % 58 % 0 % 1020,9 hPa 0,0 l/m 4,4 km/h (1 Bft) 0 min 0,0 km/h (0 Bft)
15.04.2010 23:28 17,2 C 9,6 C 0,0 UV-I 0,0 C 44 % 59 % 0 % 1020,9 hPa 0,0 l/m 4,0 km/h (1 Bft) 0 min 8,0 km/h (2 Bft)
15.04.2010 23:30 17,2 C 9,5 C 0,0 UV-I 0,0 C 44 % 59 % 0 % 1020,9 hPa 0,0 l/m 3,6 km/h (1 Bft) 0 min 5,2 km/h (1 Bft)
15.04.2010 23:32 17,2 C 9,5 C 0,0 UV-I 0,0 C 44 % 59 % 0 % 1021,1 hPa 0,0 l/m 3,2 km/h (1 Bft) 0 min 9,2 km/h (2 Bft)
15.04.2010 23:34 17,2 C 9,5 C 0,0 UV-I 0,0 C 44 % 59 % 0 % 1021,1 hPa 0,0 l/m 3,6 km/h (1 Bft) 0 min 6,8 km/h (2 Bft)
15.04.2010 23:36 17,2 C 9,4 C 0,0 UV-I 0,0 C 44 % 60 % 0 % 1021,1 hPa 0,0 l/m 3,6 km/h (1 Bft) 0 min 6,4 km/h (2 Bft)
15.04.2010 23:38 17,2 C 9,3 C 0,0 UV-I 0,0 C 44 % 60 % 0 % 1021,1 hPa 0,0 l/m 3,6 km/h (1 Bft) 0 min 5,2 km/h (1 Bft)
15.04.2010 23:40 17,2 C 9,2 C 0,0 UV-I 0,0 C 44 % 60 % 0 % 1021,1 hPa 0,0 l/m 3,6 km/h (1 Bft) 0 min 6,8 km/h (2 Bft)
15.04.2010 23:42 17,2 C 9,2 C 0,0 UV-I 0,0 C 44 % 60 % 0 % 1021,1 hPa 0,0 l/m 3,6 km/h (1 Bft) 0 min 6,0 km/h (2 Bft)
15.04.2010 23:44 17,2 C 9,3 C 0,0 UV-I 0,0 C 44 % 60 % 0 % 1021,1 hPa 0,0 l/m 3,6 km/h (1 Bft) 0 min 5,6 km/h (1 Bft)
15.04.2010 23:46 17,2 C 9,1 C 0,0 UV-I 0,0 C 44 % 60 % 0 % 1021,1 hPa 0,0 l/m 2,8 km/h (1 Bft) 0 min 4,8 km/h (1 Bft)
15.04.2010 23:48 17,2 C 9,1 C 0,0 UV-I 0,0 C 44 % 61 % 0 % 1021,1 hPa 0,0 l/m 3,2 km/h (1 Bft) 0 min 6,0 km/h (2 Bft)
15.04.2010 23:50 17,2 C 9,1 C 0,0 UV-I 0,0 C 44 % 61 % 0 % 1021,1 hPa 0,0 l/m 3,6 km/h (1 Bft) 0 min 11,2 km/h (2 Bft)
15.04.2010 23:52 17,2 C 9,1 C 0,0 UV-I 0,0 C 44 % 61 % 0 % 1021,0 hPa 0,0 l/m 3,6 km/h (1 Bft) 0 min 6,0 km/h (2 Bft)
15.04.2010 23:54 17,2 C 9,1 C 0,0 UV-I 0,0 C 44 % 61 % 0 % 1021,0 hPa 0,0 l/m 3,6 km/h (1 Bft) 0 min 7,2 km/h (2 Bft)
15.04.2010 23:56 17,2 C 8,9 C 0,0 UV-I 0,0 C 44 % 61 % 0 % 1021,0 hPa 0,0 l/m 4,0 km/h (1 Bft) 0 min 4,4 km/h (1 Bft)
15.04.2010 23:58 17,2 C 8,9 C 0,0 UV-I 0,0 C 44 % 61 % 0 % 1021,0 hPa 0,0 l/m 4,4 km/h (1 Bft) 0 min 4,0 km/h (1 Bft)
_ Min-Zeit 06:06 05:52 00:00 00:00 16:56 17:24 00:00 00:36 - 01:10 - 00:04
Minimum _ 15,6 C 4,2 C 0,0 UV-I 0,0 C 40 % 35 % 0 % 1017,8 hPa - 0,0 km/h (0 Bft) - 0,0 km/h (0 Bft)
_ Max-Zeit 17:06 15:30 14:50 11:08 10:56 06:12 09:56 14:32 00:00 16:08 09:54 17:20
Maximum _ 20,0 C 18,3 C 9,1 UV-I 8,4 C 50 % 83 % 100 % 1022,3 hPa 0,0 l/m 14,5 km/h
S (3 Bft)
2 min 36,9 km/h
S (5 Bft)
Durchschnitt _ 17,2 C 10,9 C 2,1 UV-I 2,0 C 45 % 60 % 37 % 1019,4 hPa #0,0 l/m 5,4 km/h (1 Bft) #7:46 h 7,2 km/h (2 Bft)
© 2012 W. Hausmann